GEFSNGP_prec_meanprecacc_228.txt.gz
Total_Precipitation_Accumulation
0.14 0.16 0.22 0.43 0.48 0.39 0.39 0.39 0.46 0.42 0.45 0.53 0.59 0.63 0.64 0.66 0.58 0.48 0.42 0.37 0.32 0.31 0.33 0.34 0.39 0.46 0.56 0.85 1.06 1.07 1.06 0.93 0.80 0.70 0.65 0.62 0.61 0.62 0.56 0.51 0.50 0.49 0.57 0.66
0.12 0.11 0.14 0.17 0.13 0.12 0.15 0.20 0.28 0.32 0.42 0.46 0.49 0.50 0.55 0.55 0.41 0.36 0.32 0.30 0.30 0.28 0.25 0.22 0.22 0.28 0.37 0.56 0.74 0.83 0.88 0.84 0.70 0.66 0.58 0.51 0.56 0.64 0.62 0.50 0.45 0.46 0.49 0.46
0.15 0.11 0.13 0.13 0.08 0.13 0.16 0.18 0.22 0.33 0.45 0.50 0.52 0.58 0.88 0.91 0.59 0.41 0.37 0.33 0.35 0.33 0.30 0.27 0.24 0.25 0.27 0.33 0.43 0.51 0.56 0.58 0.47 0.46 0.55 0.57 0.59 0.58 0.51 0.41 0.42 0.43 0.38 0.32
0.19 0.17 0.21 0.12 0.07 0.12 0.16 0.16 0.16 0.18 0.21 0.26 0.38 0.52 0.69 0.78 0.63 0.45 0.42 0.35 0.33 0.30 0.27 0.25 0.22 0.22 0.23 0.24 0.27 0.30 0.29 0.27 0.23 0.30 0.42 0.44 0.41 0.39 0.34 0.34 0.39 0.45 0.38 0.35
0.22 0.30 0.25 0.09 0.06 0.08 0.10 0.09 0.07 0.08 0.08 0.10 0.14 0.15 0.18 0.22 0.26 0.24 0.20 0.16 0.14 0.12 0.11 0.11 0.11 0.12 0.11 0.09 0.10 0.11 0.11 0.11 0.12 0.13 0.15 0.16 0.14 0.17 0.23 0.29 0.34 0.31 0.33 0.48
0.24 0.29 0.23 0.10 0.05 0.05 0.08 0.12 0.06 0.03 0.03 0.04 0.07 0.12 0.11 0.16 0.11 0.06 0.04 0.04 0.06 0.08 0.09 0.08 0.08 0.09 0.07 0.07 0.08 0.08 0.09 0.10 0.11 0.10 0.11 0.10 0.11 0.12 0.15 0.19 0.25 0.26 0.29 0.42
0.20 0.27 0.15 0.06 0.05 0.06 0.12 0.12 0.05 0.03 0.02 0.02 0.03 0.05 0.05 0.11 0.09 0.02 0.04 0.04 0.06 0.07 0.08 0.08 0.07 0.08 0.07 0.07 0.08 0.12 0.12 0.11 0.10 0.10 0.12 0.15 0.18 0.16 0.17 0.16 0.18 0.20 0.24 0.29
0.15 0.20 0.16 0.06 0.05 0.08 0.09 0.05 0.04 0.05 0.04 0.03 0.03 0.03 0.04 0.07 0.08 0.03 0.04 0.05 0.07 0.08 0.07 0.08 0.09 0.09 0.09 0.08 0.10 0.13 0.13 0.12 0.11 0.13 0.14 0.16 0.22 0.23 0.22 0.21 0.19 0.19 0.24 0.30
0.14 0.12 0.08 0.06 0.06 0.07 0.06 0.05 0.04 0.05 0.05 0.03 0.03 0.03 0.03 0.05 0.10 0.05 0.04 0.05 0.07 0.09 0.10 0.10 0.10 0.11 0.11 0.11 0.13 0.14 0.13 0.13 0.14 0.15 0.17 0.17 0.19 0.20 0.23 0.23 0.24 0.24 0.26 0.29
0.13 0.09 0.06 0.07 0.08 0.07 0.05 0.04 0.03 0.05 0.06 0.05 0.05 0.04 0.04 0.05 0.09 0.08 0.07 0.05 0.05 0.06 0.09 0.13 0.15 0.15 0.17 0.18 0.19 0.18 0.17 0.16 0.16 0.17 0.20 0.22 0.23 0.24 0.26 0.29 0.29 0.29 0.29 0.31
0.12 0.09 0.07 0.08 0.09 0.10 0.07 0.05 0.04 0.05 0.06 0.07 0.08 0.08 0.06 0.06 0.06 0.07 0.10 0.09 0.06 0.06 0.07 0.10 0.14 0.16 0.19 0.20 0.21 0.22 0.22 0.22 0.21 0.21 0.22 0.25 0.27 0.29 0.29 0.30 0.32 0.31 0.31 0.33
0.11 0.08 0.08 0.08 0.08 0.10 0.11 0.08 0.06 0.04 0.05 0.06 0.07 0.08 0.07 0.07 0.07 0.07 0.07 0.07 0.07 0.08 0.07 0.08 0.09 0.10 0.13 0.15 0.17 0.19 0.24 0.24 0.22 0.25 0.29 0.29 0.28 0.25 0.27 0.29 0.31 0.30 0.29 0.32
0.07 0.06 0.06 0.06 0.07 0.08 0.10 0.09 0.06 0.05 0.05 0.06 0.08 0.09 0.09 0.09 0.09 0.08 0.07 0.06 0.06 0.08 0.08 0.08 0.07 0.08 0.09 0.11 0.16 0.19 0.20 0.21 0.21 0.22 0.23 0.27 0.28 0.26 0.28 0.29 0.30 0.29 0.28 0.30
0.05 0.05 0.06 0.06 0.07 0.07 0.08 0.08 0.06 0.06 0.07 0.07 0.09 0.11 0.12 0.12 0.11 0.10 0.09 0.07 0.06 0.06 0.06 0.07 0.08 0.08 0.09 0.11 0.14 0.18 0.21 0.26 0.25 0.22 0.22 0.23 0.23 0.24 0.28 0.30 0.32 0.31 0.30 0.29
0.05 0.04 0.05 0.06 0.06 0.06 0.06 0.08 0.08 0.08 0.09 0.09 0.10 0.12 0.15 0.13 0.12 0.12 0.12 0.11 0.07 0.07 0.07 0.07 0.09 0.10 0.11 0.10 0.12 0.14 0.18 0.24 0.28 0.27 0.25 0.27 0.27 0.23 0.23 0.26 0.29 0.30 0.30 0.28
0.07 0.05 0.04 0.04 0.04 0.04 0.05 0.08 0.09 0.10 0.10 0.10 0.10 0.13 0.14 0.14 0.13 0.13 0.13 0.12 0.11 0.10 0.10 0.09 0.09 0.12 0.15 0.14 0.14 0.15 0.16 0.21 0.26 0.29 0.29 0.28 0.28 0.26 0.24 0.22 0.22 0.23 0.25 0.28
0.11 0.09 0.07 0.07 0.06 0.05 0.04 0.05 0.07 0.10 0.10 0.10 0.12 0.12 0.13 0.12 0.11 0.10 0.12 0.13 0.12 0.11 0.12 0.12 0.12 0.14 0.16 0.16 0.15 0.14 0.15 0.18 0.24 0.29 0.29 0.27 0.27 0.27 0.26 0.25 0.24 0.24 0.24 0.29
0.12 0.12 0.10 0.09 0.07 0.05 0.04 0.03 0.04 0.07 0.09 0.09 0.09 0.10 0.11 0.12 0.11 0.10 0.12 0.12 0.13 0.11 0.11 0.13 0.13 0.14 0.14 0.14 0.14 0.15 0.17 0.18 0.21 0.25 0.28 0.30 0.28 0.27 0.26 0.25 0.25 0.26 0.26 0.27
0.10 0.10 0.09 0.07 0.06 0.05 0.05 0.04 0.04 0.04 0.05 0.07 0.07 0.07 0.07 0.10 0.11 0.10 0.10 0.10 0.10 0.09 0.09 0.11 0.15 0.15 0.14 0.16 0.17 0.18 0.20 0.22 0.24 0.26 0.28 0.30 0.29 0.27 0.28 0.29 0.30 0.30 0.30 0.29
0.08 0.07 0.07 0.06 0.06 0.07 0.07 0.06 0.05 0.05 0.04 0.05 0.05 0.05 0.05 0.07 0.09 0.09 0.09 0.09 0.09 0.10 0.09 0.09 0.09 0.10 0.10 0.13 0.17 0.20 0.23 0.24 0.25 0.25 0.27 0.27 0.28 0.28 0.29 0.30 0.32 0.33 0.32 0.31
0.09 0.08 0.07 0.06 0.06 0.07 0.08 0.08 0.06 0.05 0.04 0.04 0.05 0.06 0.05 0.06 0.09 0.11 0.11 0.10 0.10 0.10 0.09 0.10 0.09 0.09 0.11 0.13 0.15 0.15 0.20 0.23 0.24 0.25 0.25 0.28 0.29 0.30 0.32 0.34 0.35 0.37 0.39 0.39
0.10 0.09 0.08 0.07 0.07 0.06 0.06 0.06 0.06 0.05 0.05 0.05 0.05 0.06 0.06 0.07 0.09 0.11 0.13 0.15 0.15 0.16 0.13 0.11 0.11 0.13 0.15 0.18 0.16 0.15 0.17 0.22 0.26 0.27 0.28 0.30 0.31 0.31 0.33 0.37 0.37 0.37 0.38 0.40
0.11 0.11 0.10 0.09 0.08 0.07 0.05 0.05 0.05 0.05 0.05 0.05 0.05 0.06 0.08 0.09 0.10 0.12 0.15 0.18 0.18 0.19 0.17 0.17 0.20 0.21 0.21 0.19 0.17 0.17 0.18 0.22 0.25 0.26 0.27 0.30 0.33 0.34 0.34 0.36 0.39 0.40 0.40 0.40
0.12 0.12 0.12 0.12 0.11 0.10 0.08 0.07 0.06 0.06 0.06 0.05 0.06 0.06 0.08 0.10 0.12 0.15 0.18 0.22 0.23 0.23 0.19 0.20 0.24 0.27 0.28 0.24 0.21 0.19 0.21 0.24 0.27 0.28 0.28 0.30 0.31 0.33 0.35 0.38 0.42 0.45 0.47 0.49
0.13 0.15 0.16 0.15 0.16 0.16 0.14 0.12 0.10 0.09 0.09 0.08 0.09 0.09 0.10 0.11 0.14 0.17 0.20 0.22 0.25 0.24 0.21 0.22 0.25 0.27 0.24 0.23 0.22 0.22 0.21 0.24 0.27 0.29 0.30 0.32 0.33 0.35 0.37 0.38 0.42 0.48 0.51 0.54
0.13 0.14 0.16 0.17 0.16 0.15 0.15 0.15 0.14 0.12 0.11 0.11 0.10 0.10 0.10 0.09 0.11 0.13 0.16 0.20 0.24 0.27 0.24 0.23 0.22 0.24 0.23 0.23 0.23 0.23 0.23 0.23 0.24 0.25 0.27 0.32 0.32 0.33 0.36 0.38 0.41 0.46 0.52 0.54
0.17 0.16 0.16 0.18 0.18 0.17 0.17 0.17 0.17 0.17 0.16 0.15 0.14 0.14 0.13 0.13 0.13 0.14 0.15 0.17 0.20 0.24 0.27 0.27 0.26 0.26 0.26 0.25 0.25 0.26 0.27 0.28 0.29 0.31 0.32 0.34 0.35 0.37 0.39 0.40 0.42 0.47 0.50 0.51

GEFSNGP_prec_meanprecacc_234.txt.gz
Total_Precipitation_Accumulation
0.14 0.16 0.22 0.43 0.48 0.39 0.39 0.39 0.46 0.42 0.45 0.54 0.60 0.63 0.65 0.66 0.58 0.48 0.42 0.38 0.32 0.31 0.33 0.34 0.39 0.46 0.56 0.85 1.06 1.08 1.08 0.95 0.84 0.75 0.68 0.64 0.63 0.63 0.57 0.52 0.51 0.51 0.58 0.67
0.12 0.12 0.14 0.17 0.13 0.12 0.15 0.20 0.28 0.32 0.42 0.46 0.49 0.50 0.55 0.56 0.41 0.36 0.32 0.31 0.30 0.28 0.25 0.22 0.22 0.28 0.37 0.56 0.74 0.83 0.89 0.86 0.73 0.70 0.62 0.54 0.57 0.65 0.64 0.51 0.46 0.47 0.51 0.48
0.15 0.11 0.14 0.13 0.08 0.13 0.16 0.18 0.22 0.33 0.45 0.50 0.52 0.58 0.88 0.91 0.59 0.41 0.37 0.33 0.35 0.34 0.30 0.27 0.24 0.25 0.27 0.33 0.43 0.52 0.57 0.59 0.50 0.50 0.59 0.61 0.62 0.61 0.54 0.44 0.44 0.44 0.39 0.34
0.20 0.17 0.21 0.13 0.07 0.13 0.16 0.16 0.16 0.18 0.21 0.27 0.39 0.52 0.69 0.78 0.63 0.45 0.42 0.36 0.33 0.30 0.27 0.25 0.22 0.22 0.24 0.24 0.27 0.30 0.30 0.28 0.25 0.33 0.47 0.49 0.45 0.42 0.36 0.36 0.41 0.46 0.39 0.36
0.23 0.31 0.25 0.09 0.06 0.08 0.10 0.09 0.07 0.08 0.09 0.11 0.15 0.16 0.18 0.23 0.26 0.24 0.20 0.16 0.14 0.12 0.12 0.11 0.11 0.12 0.12 0.09 0.11 0.12 0.11 0.11 0.14 0.15 0.18 0.19 0.17 0.18 0.24 0.30 0.35 0.32 0.35 0.49
0.24 0.29 0.23 0.10 0.05 0.05 0.09 0.13 0.06 0.04 0.04 0.04 0.08 0.12 0.11 0.16 0.11 0.06 0.05 0.04 0.06 0.08 0.09 0.08 0.08 0.09 0.07 0.07 0.08 0.08 0.10 0.10 0.11 0.12 0.13 0.13 0.13 0.14 0.17 0.20 0.26 0.28 0.31 0.43
0.20 0.27 0.16 0.06 0.05 0.06 0.13 0.13 0.05 0.03 0.03 0.02 0.03 0.05 0.05 0.11 0.09 0.02 0.04 0.05 0.06 0.07 0.08 0.08 0.08 0.08 0.07 0.07 0.08 0.12 0.13 0.12 0.10 0.11 0.13 0.18 0.22 0.20 0.19 0.18 0.19 0.22 0.26 0.30
0.15 0.20 0.16 0.06 0.05 0.09 0.09 0.05 0.04 0.05 0.04 0.03 0.03 0.04 0.04 0.07 0.08 0.04 0.04 0.06 0.07 0.08 0.07 0.08 0.09 0.09 0.09 0.08 0.10 0.13 0.13 0.12 0.12 0.13 0.15 0.17 0.25 0.26 0.23 0.23 0.20 0.20 0.25 0.32
0.15 0.13 0.09 0.06 0.06 0.07 0.07 0.05 0.04 0.05 0.05 0.03 0.03 0.03 0.03 0.05 0.10 0.06 0.05 0.05 0.07 0.09 0.10 0.10 0.10 0.11 0.11 0.11 0.13 0.14 0.13 0.13 0.14 0.15 0.17 0.18 0.20 0.23 0.25 0.24 0.25 0.26 0.27 0.30
0.13 0.09 0.06 0.07 0.08 0.07 0.05 0.04 0.04 0.05 0.06 0.05 0.05 0.05 0.05 0.06 0.09 0.09 0.07 0.05 0.05 0.06 0.09 0.13 0.15 0.15 0.17 0.18 0.19 0.18 0.17 0.16 0.16 0.17 0.20 0.22 0.25 0.26 0.28 0.30 0.30 0.30 0.31 0.33
0.12 0.09 0.07 0.08 0.09 0.10 0.07 0.05 0.05 0.05 0.07 0.07 0.08 0.08 0.07 0.06 0.07 0.07 0.10 0.09 0.06 0.06 0.07 0.10 0.14 0.16 0.19 0.20 0.21 0.22 0.22 0.22 0.21 0.21 0.22 0.26 0.29 0.32 0.30 0.31 0.33 0.32 0.33 0.36
0.11 0.08 0.08 0.08 0.08 0.10 0.11 0.09 0.06 0.05 0.05 0.07 0.08 0.08 0.07 0.07 0.07 0.07 0.07 0.08 0.07 0.08 0.07 0.08 0.09 0.10 0.13 0.15 0.17 0.19 0.24 0.24 0.22 0.25 0.29 0.29 0.29 0.28 0.29 0.30 0.33 0.32 0.31 0.34
0.07 0.06 0.06 0.06 0.07 0.08 0.11 0.10 0.07 0.05 0.06 0.06 0.08 0.09 0.09 0.09 0.09 0.08 0.08 0.06 0.06 0.08 0.08 0.08 0.07 0.08 0.09 0.11 0.16 0.19 0.20 0.21 0.21 0.23 0.24 0.27 0.28 0.27 0.29 0.30 0.31 0.31 0.30 0.31
0.05 0.05 0.06 0.06 0.07 0.07 0.09 0.09 0.07 0.07 0.07 0.08 0.09 0.11 0.13 0.13 0.12 0.10 0.10 0.07 0.06 0.06 0.07 0.07 0.08 0.08 0.09 0.11 0.14 0.18 0.21 0.27 0.25 0.22 0.23 0.23 0.23 0.25 0.28 0.31 0.33 0.32 0.31 0.30
0.05 0.04 0.06 0.06 0.06 0.06 0.06 0.08 0.08 0.08 0.09 0.09 0.10 0.12 0.15 0.14 0.13 0.13 0.13 0.11 0.08 0.07 0.07 0.07 0.09 0.11 0.11 0.10 0.12 0.14 0.18 0.24 0.28 0.27 0.26 0.27 0.27 0.23 0.24 0.27 0.29 0.30 0.31 0.29
0.07 0.05 0.04 0.04 0.04 0.05 0.06 0.08 0.10 0.11 0.10 0.11 0.11 0.13 0.15 0.14 0.13 0.13 0.14 0.13 0.11 0.11 0.10 0.09 0.10 0.12 0.15 0.14 0.14 0.15 0.16 0.21 0.26 0.29 0.30 0.28 0.29 0.27 0.24 0.22 0.22 0.24 0.25 0.28
0.12 0.09 0.07 0.07 0.06 0.05 0.05 0.06 0.09 0.11 0.11 0.10 0.12 0.13 0.14 0.13 0.12 0.11 0.13 0.13 0.12 0.11 0.13 0.12 0.12 0.14 0.16 0.16 0.15 0.14 0.16 0.19 0.24 0.29 0.29 0.28 0.28 0.28 0.26 0.25 0.24 0.25 0.25 0.29
0.12 0.12 0.10 0.10 0.08 0.06 0.05 0.04 0.06 0.09 0.10 0.10 0.10 0.11 0.12 0.12 0.12 0.11 0.12 0.12 0.13 0.11 0.12 0.13 0.13 0.14 0.15 0.15 0.14 0.15 0.17 0.19 0.22 0.25 0.29 0.30 0.28 0.27 0.27 0.25 0.25 0.26 0.27 0.28
0.10 0.10 0.09 0.08 0.08 0.07 0.06 0.06 0.06 0.06 0.07 0.08 0.08 0.07 0.08 0.11 0.11 0.10 0.10 0.10 0.10 0.10 0.10 0.11 0.15 0.15 0.15 0.16 0.17 0.18 0.21 0.23 0.25 0.27 0.28 0.31 0.30 0.28 0.29 0.30 0.31 0.31 0.31 0.30
0.08 0.07 0.07 0.07 0.08 0.08 0.08 0.07 0.06 0.07 0.07 0.07 0.07 0.07 0.07 0.09 0.10 0.10 0.10 0.09 0.09 0.10 0.09 0.09 0.10 0.11 0.11 0.13 0.18 0.21 0.24 0.26 0.26 0.26 0.27 0.28 0.28 0.29 0.30 0.31 0.33 0.34 0.33 0.32
0.09 0.08 0.07 0.07 0.07 0.08 0.09 0.09 0.06 0.06 0.06 0.06 0.07 0.07 0.07 0.08 0.12 0.14 0.13 0.12 0.11 0.11 0.10 0.11 0.10 0.10 0.12 0.14 0.16 0.16 0.21 0.24 0.25 0.25 0.26 0.29 0.30 0.31 0.33 0.35 0.36 0.37 0.39 0.39
0.10 0.10 0.09 0.08 0.07 0.07 0.06 0.07 0.07 0.06 0.05 0.05 0.07 0.07 0.08 0.08 0.10 0.12 0.14 0.17 0.16 0.16 0.13 0.11 0.11 0.13 0.16 0.19 0.17 0.16 0.18 0.23 0.28 0.28 0.29 0.31 0.33 0.33 0.35 0.38 0.38 0.38 0.39 0.41
0.11 0.11 0.11 0.09 0.09 0.08 0.06 0.05 0.05 0.05 0.05 0.05 0.06 0.07 0.09 0.10 0.11 0.14 0.17 0.19 0.19 0.20 0.18 0.18 0.21 0.22 0.23 0.20 0.19 0.18 0.20 0.23 0.27 0.28 0.29 0.32 0.35 0.36 0.36 0.37 0.40 0.41 0.41 0.41
0.12 0.12 0.13 0.13 0.13 0.12 0.09 0.08 0.07 0.06 0.06 0.06 0.07 0.08 0.09 0.12 0.14 0.17 0.20 0.24 0.25 0.24 0.21 0.22 0.25 0.28 0.29 0.25 0.22 0.21 0.23 0.26 0.30 0.31 0.31 0.32 0.33 0.34 0.37 0.40 0.44 0.47 0.49 0.51
0.13 0.15 0.18 0.18 0.19 0.19 0.16 0.13 0.11 0.10 0.09 0.09 0.09 0.10 0.11 0.12 0.15 0.19 0.21 0.24 0.26 0.26 0.22 0.23 0.26 0.28 0.25 0.24 0.24 0.23 0.23 0.25 0.29 0.31 0.32 0.34 0.35 0.37 0.38 0.40 0.45 0.50 0.54 0.56
0.13 0.15 0.19 0.20 0.19 0.18 0.17 0.16 0.15 0.13 0.12 0.11 0.11 0.11 0.11 0.10 0.11 0.14 0.17 0.21 0.25 0.28 0.25 0.23 0.23 0.24 0.24 0.24 0.24 0.25 0.24 0.25 0.26 0.27 0.29 0.33 0.34 0.35 0.38 0.40 0.42 0.47 0.53 0.55
0.18 0.17 0.18 0.22 0.22 0.20 0.18 0.18 0.19 0.18 0.17 0.16 0.15 0.14 0.14 0.14 0.13 0.14 0.15 0.18 0.21 0.25 0.28 0.28 0.27 0.26 0.27 0.26 0.26 0.27 0.28 0.29 0.31 0.33 0.34 0.36 0.37 0.39 0.40 0.42 0.44 0.48 0.51 0.52

GEFSNGP_prec_meanprecacc_240.txt.gz
Total_Precipitation_Accumulation
0.14 0.16 0.22 0.43 0.48 0.40 0.40 0.40 0.46 0.42 0.45 0.54 0.60 0.63 0.65 0.66 0.58 0.49 0.43 0.39 0.34 0.32 0.33 0.35 0.39 0.46 0.57 0.85 1.07 1.09 1.08 0.96 0.85 0.77 0.70 0.65 0.64 0.64 0.58 0.52 0.52 0.51 0.59 0.68
0.12 0.12 0.14 0.17 0.13 0.12 0.15 0.20 0.28 0.32 0.42 0.46 0.49 0.51 0.55 0.56 0.42 0.37 0.32 0.31 0.31 0.28 0.26 0.22 0.22 0.29 0.37 0.56 0.74 0.84 0.90 0.86 0.73 0.71 0.64 0.56 0.58 0.66 0.65 0.53 0.47 0.48 0.51 0.49
0.16 0.11 0.14 0.13 0.08 0.13 0.16 0.18 0.22 0.33 0.45 0.50 0.52 0.58 0.88 0.91 0.60 0.41 0.37 0.33 0.35 0.34 0.31 0.28 0.25 0.25 0.28 0.33 0.44 0.53 0.58 0.60 0.51 0.51 0.61 0.63 0.65 0.63 0.56 0.45 0.45 0.45 0.40 0.35
0.20 0.18 0.21 0.13 0.07 0.13 0.16 0.16 0.16 0.18 0.21 0.27 0.39 0.53 0.70 0.79 0.64 0.46 0.43 0.36 0.33 0.30 0.27 0.25 0.23 0.23 0.24 0.25 0.28 0.31 0.30 0.29 0.26 0.34 0.48 0.50 0.47 0.44 0.39 0.38 0.42 0.48 0.40 0.38
0.23 0.32 0.26 0.09 0.06 0.08 0.10 0.09 0.07 0.08 0.09 0.11 0.15 0.17 0.18 0.23 0.27 0.24 0.20 0.17 0.14 0.12 0.12 0.11 0.11 0.12 0.12 0.10 0.11 0.12 0.12 0.12 0.14 0.16 0.19 0.20 0.18 0.20 0.27 0.33 0.38 0.34 0.37 0.51
0.25 0.30 0.24 0.10 0.05 0.05 0.09 0.13 0.06 0.04 0.04 0.05 0.08 0.13 0.12 0.17 0.12 0.06 0.05 0.05 0.06 0.08 0.09 0.09 0.08 0.09 0.08 0.08 0.08 0.09 0.10 0.11 0.12 0.12 0.14 0.14 0.15 0.16 0.19 0.23 0.28 0.30 0.33 0.46
0.20 0.28 0.16 0.06 0.05 0.06 0.13 0.13 0.05 0.04 0.03 0.03 0.04 0.06 0.06 0.12 0.10 0.03 0.05 0.06 0.07 0.07 0.08 0.08 0.08 0.09 0.08 0.07 0.09 0.12 0.13 0.12 0.11 0.11 0.13 0.18 0.23 0.21 0.20 0.20 0.21 0.24 0.27 0.32
0.16 0.21 0.17 0.06 0.05 0.09 0.09 0.06 0.05 0.05 0.04 0.03 0.04 0.04 0.04 0.07 0.08 0.04 0.05 0.06 0.08 0.08 0.08 0.09 0.09 0.09 0.09 0.08 0.11 0.14 0.13 0.13 0.12 0.13 0.15 0.18 0.27 0.28 0.24 0.23 0.20 0.21 0.26 0.33
0.15 0.14 0.09 0.06 0.06 0.07 0.07 0.05 0.04 0.05 0.05 0.03 0.03 0.03 0.03 0.05 0.10 0.06 0.05 0.05 0.07 0.09 0.10 0.10 0.11 0.11 0.11 0.12 0.13 0.14 0.14 0.13 0.14 0.15 0.18 0.19 0.22 0.24 0.26 0.24 0.25 0.26 0.28 0.31
0.13 0.09 0.06 0.07 0.08 0.07 0.05 0.04 0.04 0.05 0.06 0.06 0.05 0.05 0.05 0.06 0.10 0.09 0.07 0.05 0.05 0.06 0.09 0.13 0.15 0.16 0.17 0.18 0.19 0.18 0.17 0.17 0.16 0.17 0.20 0.23 0.26 0.27 0.29 0.30 0.31 0.31 0.31 0.34
0.12 0.09 0.07 0.08 0.09 0.10 0.07 0.05 0.05 0.06 0.07 0.07 0.09 0.09 0.07 0.06 0.07 0.08 0.10 0.09 0.06 0.06 0.07 0.11 0.14 0.17 0.19 0.20 0.21 0.23 0.22 0.22 0.22 0.22 0.22 0.26 0.31 0.33 0.31 0.32 0.34 0.32 0.34 0.37
0.11 0.08 0.08 0.08 0.08 0.10 0.11 0.09 0.07 0.05 0.06 0.07 0.08 0.08 0.07 0.07 0.07 0.07 0.07 0.08 0.08 0.08 0.08 0.08 0.09 0.10 0.13 0.15 0.17 0.19 0.24 0.24 0.22 0.25 0.29 0.30 0.30 0.29 0.31 0.31 0.34 0.32 0.31 0.34
0.07 0.06 0.06 0.06 0.07 0.08 0.11 0.10 0.07 0.06 0.06 0.07 0.09 0.09 0.09 0.10 0.10 0.09 0.08 0.07 0.07 0.08 0.09 0.09 0.08 0.08 0.09 0.11 0.16 0.19 0.20 0.21 0.21 0.23 0.24 0.27 0.29 0.28 0.30 0.31 0.32 0.31 0.30 0.32
0.05 0.05 0.06 0.06 0.07 0.07 0.09 0.10 0.07 0.07 0.08 0.09 0.10 0.11 0.13 0.13 0.12 0.11 0.10 0.08 0.07 0.07 0.07 0.08 0.08 0.09 0.10 0.11 0.15 0.18 0.21 0.27 0.25 0.22 0.23 0.24 0.24 0.25 0.29 0.32 0.34 0.32 0.32 0.31
0.05 0.04 0.06 0.06 0.06 0.06 0.06 0.09 0.09 0.09 0.10 0.10 0.10 0.13 0.16 0.14 0.13 0.14 0.13 0.11 0.08 0.08 0.07 0.08 0.09 0.11 0.11 0.10 0.12 0.14 0.18 0.24 0.28 0.27 0.26 0.27 0.28 0.24 0.24 0.27 0.30 0.31 0.31 0.30
0.07 0.05 0.04 0.04 0.04 0.05 0.06 0.09 0.11 0.11 0.11 0.12 0.11 0.13 0.15 0.15 0.14 0.14 0.14 0.13 0.11 0.11 0.10 0.09 0.10 0.12 0.15 0.14 0.14 0.15 0.16 0.21 0.26 0.29 0.30 0.28 0.29 0.27 0.25 0.23 0.23 0.24 0.26 0.29
0.12 0.09 0.07 0.07 0.06 0.05 0.05 0.07 0.10 0.12 0.12 0.11 0.13 0.13 0.14 0.14 0.13 0.12 0.13 0.13 0.12 0.11 0.13 0.12 0.13 0.15 0.16 0.16 0.15 0.14 0.16 0.19 0.24 0.29 0.29 0.28 0.28 0.28 0.27 0.26 0.25 0.25 0.25 0.30
0.12 0.12 0.10 0.10 0.08 0.06 0.05 0.05 0.07 0.10 0.12 0.12 0.11 0.11 0.12 0.14 0.13 0.12 0.12 0.12 0.13 0.11 0.12 0.13 0.13 0.14 0.15 0.15 0.14 0.16 0.18 0.19 0.22 0.25 0.29 0.30 0.28 0.28 0.27 0.26 0.26 0.27 0.27 0.29
0.10 0.10 0.09 0.08 0.08 0.07 0.06 0.06 0.06 0.07 0.08 0.10 0.10 0.09 0.09 0.12 0.12 0.11 0.10 0.10 0.11 0.10 0.10 0.11 0.15 0.15 0.15 0.16 0.18 0.19 0.22 0.24 0.25 0.27 0.29 0.31 0.30 0.28 0.29 0.30 0.31 0.31 0.31 0.30
0.08 0.07 0.08 0.07 0.08 0.08 0.08 0.07 0.07 0.07 0.08 0.08 0.08 0.09 0.09 0.10 0.12 0.12 0.11 0.10 0.10 0.11 0.10 0.10 0.10 0.11 0.11 0.14 0.18 0.21 0.25 0.26 0.27 0.27 0.28 0.29 0.29 0.29 0.31 0.32 0.33 0.34 0.34 0.33
0.09 0.08 0.07 0.07 0.07 0.08 0.09 0.09 0.07 0.06 0.07 0.08 0.08 0.08 0.09 0.10 0.13 0.15 0.15 0.14 0.13 0.12 0.11 0.12 0.11 0.11 0.13 0.15 0.16 0.17 0.22 0.25 0.26 0.26 0.27 0.30 0.31 0.32 0.34 0.36 0.37 0.39 0.41 0.41
0.10 0.10 0.09 0.08 0.07 0.07 0.06 0.07 0.07 0.06 0.06 0.06 0.07 0.08 0.08 0.09 0.11 0.13 0.16 0.18 0.18 0.18 0.15 0.13 0.13 0.15 0.18 0.21 0.18 0.17 0.19 0.24 0.28 0.29 0.30 0.32 0.35 0.35 0.37 0.39 0.39 0.40 0.41 0.43
0.12 0.11 0.11 0.09 0.09 0.08 0.06 0.05 0.05 0.05 0.05 0.06 0.07 0.09 0.11 0.12 0.12 0.15 0.18 0.21 0.20 0.22 0.20 0.20 0.22 0.24 0.24 0.21 0.20 0.19 0.21 0.24 0.27 0.29 0.30 0.34 0.37 0.39 0.40 0.41 0.43 0.44 0.43 0.44
0.12 0.12 0.13 0.13 0.13 0.12 0.10 0.08 0.07 0.07 0.06 0.06 0.08 0.09 0.12 0.14 0.16 0.19 0.22 0.25 0.26 0.25 0.22 0.23 0.27 0.29 0.30 0.26 0.23 0.21 0.23 0.27 0.30 0.31 0.31 0.33 0.34 0.36 0.39 0.42 0.48 0.50 0.52 0.55
0.13 0.15 0.18 0.18 0.19 0.19 0.17 0.14 0.11 0.10 0.10 0.09 0.10 0.11 0.12 0.13 0.16 0.20 0.22 0.24 0.27 0.27 0.23 0.24 0.26 0.28 0.25 0.24 0.24 0.24 0.23 0.25 0.29 0.31 0.32 0.35 0.36 0.37 0.39 0.41 0.46 0.52 0.56 0.59
0.13 0.15 0.19 0.20 0.19 0.19 0.18 0.17 0.16 0.15 0.14 0.13 0.12 0.12 0.11 0.11 0.12 0.14 0.18 0.22 0.26 0.29 0.26 0.24 0.24 0.25 0.24 0.24 0.25 0.25 0.25 0.25 0.26 0.27 0.29 0.33 0.34 0.35 0.38 0.41 0.43 0.49 0.54 0.56
0.18 0.17 0.18 0.22 0.23 0.21 0.19 0.20 0.22 0.21 0.19 0.17 0.16 0.15 0.15 0.14 0.14 0.15 0.16 0.18 0.22 0.26 0.28 0.29 0.28 0.27 0.27 0.27 0.27 0.28 0.29 0.30 0.31 0.33 0.35 0.36 0.38 0.40 0.41 0.43 0.45 0.49 0.52 0.53

GEFSNGP_prec_meanprecacc_246.txt.gz
Total_Precipitation_Accumulation
0.14 0.16 0.23 0.44 0.48 0.40 0.40 0.40 0.47 0.43 0.46 0.54 0.60 0.64 0.65 0.67 0.59 0.49 0.44 0.41 0.37 0.33 0.34 0.37 0.41 0.48 0.58 0.86 1.07 1.10 1.09 0.97 0.87 0.78 0.71 0.66 0.65 0.65 0.60 0.55 0.53 0.52 0.60 0.68
0.12 0.12 0.14 0.17 0.13 0.12 0.15 0.20 0.28 0.32 0.42 0.47 0.49 0.51 0.56 0.56 0.42 0.37 0.33 0.32 0.32 0.28 0.27 0.24 0.24 0.30 0.38 0.57 0.75 0.85 0.90 0.87 0.74 0.71 0.64 0.56 0.59 0.67 0.66 0.54 0.49 0.49 0.53 0.50
0.16 0.12 0.14 0.13 0.08 0.13 0.16 0.19 0.23 0.33 0.45 0.50 0.52 0.58 0.88 0.91 0.60 0.42 0.38 0.33 0.36 0.34 0.31 0.28 0.25 0.26 0.28 0.34 0.44 0.54 0.59 0.61 0.51 0.51 0.62 0.65 0.66 0.64 0.57 0.47 0.47 0.47 0.41 0.37
0.20 0.18 0.22 0.13 0.08 0.13 0.16 0.16 0.16 0.18 0.21 0.27 0.39 0.53 0.70 0.79 0.64 0.46 0.43 0.36 0.33 0.30 0.28 0.26 0.23 0.23 0.25 0.25 0.29 0.32 0.31 0.30 0.27 0.35 0.49 0.52 0.49 0.46 0.40 0.40 0.44 0.49 0.42 0.38
0.24 0.32 0.26 0.09 0.06 0.09 0.10 0.09 0.07 0.08 0.09 0.11 0.15 0.17 0.18 0.23 0.27 0.24 0.20 0.17 0.14 0.13 0.12 0.11 0.11 0.13 0.13 0.10 0.12 0.13 0.12 0.13 0.16 0.18 0.21 0.22 0.20 0.22 0.28 0.35 0.39 0.35 0.38 0.52
0.26 0.30 0.24 0.10 0.05 0.05 0.09 0.13 0.06 0.04 0.04 0.05 0.08 0.13 0.12 0.17 0.12 0.06 0.05 0.05 0.07 0.09 0.09 0.09 0.09 0.10 0.09 0.09 0.09 0.10 0.11 0.12 0.13 0.13 0.15 0.16 0.16 0.17 0.21 0.24 0.29 0.31 0.35 0.48
0.21 0.28 0.16 0.06 0.05 0.07 0.13 0.13 0.05 0.04 0.03 0.03 0.04 0.06 0.06 0.12 0.10 0.03 0.05 0.06 0.07 0.08 0.08 0.09 0.09 0.10 0.09 0.08 0.10 0.13 0.14 0.13 0.11 0.12 0.14 0.19 0.24 0.23 0.22 0.21 0.22 0.26 0.31 0.36
0.16 0.21 0.17 0.06 0.06 0.09 0.10 0.06 0.05 0.05 0.04 0.03 0.04 0.04 0.04 0.07 0.08 0.04 0.05 0.06 0.09 0.09 0.09 0.10 0.11 0.10 0.10 0.09 0.11 0.14 0.14 0.13 0.12 0.14 0.16 0.19 0.27 0.29 0.26 0.24 0.21 0.22 0.27 0.34
0.16 0.14 0.09 0.07 0.07 0.07 0.07 0.05 0.04 0.05 0.05 0.04 0.03 0.03 0.03 0.06 0.11 0.06 0.05 0.06 0.08 0.10 0.11 0.11 0.12 0.12 0.12 0.12 0.14 0.15 0.14 0.14 0.15 0.16 0.18 0.20 0.22 0.25 0.27 0.25 0.25 0.26 0.28 0.32
0.13 0.09 0.06 0.07 0.08 0.07 0.05 0.04 0.04 0.05 0.06 0.06 0.06 0.05 0.05 0.06 0.10 0.09 0.07 0.05 0.06 0.07 0.10 0.14 0.16 0.16 0.17 0.19 0.20 0.19 0.18 0.17 0.17 0.18 0.21 0.24 0.26 0.28 0.29 0.31 0.31 0.31 0.31 0.35
0.12 0.09 0.07 0.08 0.09 0.10 0.08 0.05 0.05 0.06 0.07 0.07 0.09 0.09 0.07 0.06 0.07 0.08 0.10 0.09 0.07 0.07 0.08 0.11 0.15 0.17 0.20 0.20 0.22 0.23 0.23 0.23 0.22 0.22 0.23 0.27 0.31 0.34 0.32 0.32 0.34 0.33 0.34 0.38
0.12 0.08 0.08 0.08 0.09 0.11 0.11 0.09 0.07 0.05 0.06 0.07 0.08 0.08 0.07 0.07 0.07 0.08 0.08 0.08 0.08 0.08 0.08 0.08 0.10 0.11 0.14 0.15 0.17 0.20 0.24 0.25 0.23 0.26 0.30 0.30 0.31 0.30 0.31 0.32 0.34 0.33 0.32 0.35
0.07 0.07 0.06 0.07 0.07 0.08 0.11 0.11 0.07 0.06 0.07 0.08 0.09 0.10 0.10 0.10 0.10 0.09 0.08 0.07 0.09 0.09 0.09 0.09 0.08 0.09 0.10 0.12 0.16 0.19 0.20 0.21 0.21 0.23 0.24 0.28 0.29 0.29 0.31 0.32 0.32 0.32 0.31 0.33
0.05 0.06 0.07 0.07 0.07 0.07 0.09 0.10 0.07 0.07 0.08 0.09 0.10 0.11 0.13 0.13 0.13 0.12 0.11 0.09 0.11 0.09 0.10 0.09 0.09 0.09 0.10 0.12 0.15 0.18 0.21 0.27 0.25 0.22 0.23 0.24 0.24 0.26 0.29 0.32 0.34 0.33 0.32 0.32
0.05 0.04 0.06 0.06 0.06 0.06 0.06 0.09 0.09 0.09 0.10 0.10 0.10 0.13 0.16 0.15 0.14 0.14 0.14 0.12 0.10 0.09 0.10 0.10 0.10 0.11 0.11 0.11 0.12 0.15 0.18 0.24 0.28 0.27 0.26 0.28 0.28 0.24 0.25 0.28 0.30 0.31 0.31 0.30
0.08 0.05 0.05 0.04 0.04 0.05 0.06 0.09 0.11 0.11 0.11 0.12 0.11 0.14 0.16 0.15 0.15 0.16 0.17 0.15 0.13 0.12 0.11 0.10 0.10 0.13 0.15 0.14 0.15 0.15 0.16 0.21 0.26 0.29 0.30 0.28 0.29 0.27 0.25 0.23 0.23 0.24 0.26 0.29
0.12 0.10 0.08 0.07 0.06 0.05 0.05 0.07 0.10 0.12 0.12 0.12 0.13 0.14 0.15 0.14 0.14 0.14 0.15 0.15 0.14 0.13 0.13 0.12 0.13 0.15 0.16 0.16 0.15 0.14 0.16 0.19 0.25 0.29 0.30 0.28 0.28 0.28 0.27 0.26 0.25 0.25 0.26 0.30
0.12 0.12 0.10 0.10 0.08 0.06 0.05 0.05 0.07 0.10 0.12 0.12 0.12 0.12 0.13 0.15 0.14 0.14 0.14 0.14 0.14 0.13 0.13 0.13 0.14 0.14 0.15 0.15 0.14 0.16 0.18 0.19 0.22 0.25 0.29 0.31 0.29 0.28 0.27 0.26 0.26 0.27 0.27 0.29
0.10 0.10 0.09 0.08 0.08 0.07 0.06 0.07 0.06 0.07 0.09 0.10 0.10 0.10 0.10 0.13 0.14 0.13 0.12 0.12 0.12 0.12 0.11 0.12 0.15 0.16 0.15 0.16 0.18 0.19 0.22 0.24 0.26 0.28 0.29 0.32 0.31 0.29 0.30 0.31 0.31 0.32 0.32 0.31
0.08 0.07 0.08 0.07 0.08 0.08 0.09 0.08 0.07 0.08 0.08 0.09 0.09 0.09 0.10 0.11 0.13 0.13 0.12 0.11 0.12 0.13 0.11 0.11 0.11 0.11 0.12 0.14 0.18 0.22 0.25 0.27 0.27 0.27 0.29 0.29 0.30 0.31 0.33 0.33 0.34 0.35 0.34 0.33
0.09 0.08 0.07 0.07 0.07 0.08 0.09 0.09 0.07 0.06 0.07 0.08 0.08 0.09 0.09 0.10 0.13 0.16 0.16 0.15 0.14 0.14 0.12 0.13 0.12 0.12 0.13 0.16 0.17 0.18 0.22 0.26 0.27 0.28 0.29 0.31 0.33 0.35 0.37 0.38 0.38 0.40 0.42 0.42
0.10 0.10 0.09 0.08 0.07 0.07 0.06 0.07 0.07 0.06 0.06 0.06 0.08 0.08 0.09 0.10 0.11 0.13 0.17 0.20 0.20 0.21 0.16 0.13 0.13 0.16 0.19 0.23 0.20 0.19 0.22 0.26 0.30 0.31 0.33 0.36 0.38 0.38 0.40 0.42 0.41 0.41 0.42 0.44
0.12 0.11 0.11 0.09 0.09 0.08 0.06 0.06 0.05 0.05 0.05 0.06 0.08 0.10 0.12 0.13 0.13 0.15 0.19 0.22 0.23 0.24 0.22 0.21 0.24 0.25 0.26 0.23 0.21 0.21 0.23 0.27 0.31 0.32 0.34 0.38 0.41 0.42 0.43 0.43 0.44 0.45 0.44 0.45
0.12 0.12 0.13 0.13 0.13 0.12 0.10 0.08 0.07 0.07 0.06 0.07 0.08 0.10 0.13 0.15 0.17 0.19 0.22 0.26 0.28 0.28 0.23 0.24 0.28 0.31 0.32 0.27 0.24 0.23 0.24 0.28 0.31 0.33 0.34 0.36 0.38 0.39 0.42 0.46 0.50 0.52 0.54 0.56
0.13 0.15 0.18 0.18 0.19 0.19 0.17 0.14 0.11 0.11 0.10 0.10 0.11 0.12 0.13 0.14 0.17 0.20 0.22 0.25 0.28 0.28 0.24 0.25 0.27 0.29 0.27 0.26 0.26 0.25 0.24 0.26 0.30 0.31 0.33 0.35 0.37 0.39 0.41 0.43 0.49 0.55 0.59 0.62
0.13 0.15 0.19 0.20 0.19 0.19 0.18 0.17 0.16 0.15 0.14 0.14 0.13 0.12 0.12 0.12 0.12 0.15 0.18 0.22 0.26 0.29 0.27 0.25 0.25 0.26 0.25 0.25 0.26 0.27 0.27 0.26 0.26 0.27 0.29 0.33 0.35 0.36 0.39 0.42 0.45 0.51 0.57 0.59
0.18 0.17 0.18 0.22 0.23 0.21 0.19 0.20 0.23 0.22 0.20 0.18 0.17 0.16 0.15 0.15 0.15 0.15 0.16 0.18 0.22 0.26 0.29 0.29 0.28 0.27 0.27 0.27 0.28 0.29 0.32 0.32 0.33 0.34 0.35 0.37 0.39 0.40 0.42 0.44 0.47 0.52 0.55 0.55

GEFSNGP_prec_meanprecacc_252.txt.gz
Total_Precipitation_Accumulation
0.14 0.16 0.23 0.44 0.48 0.40 0.40 0.40 0.47 0.43 0.46 0.54 0.60 0.64 0.66 0.67 0.59 0.50 0.45 0.42 0.37 0.35 0.37 0.38 0.43 0.50 0.59 0.88 1.09 1.10 1.10 0.98 0.88 0.79 0.72 0.67 0.65 0.66 0.60 0.55 0.54 0.53 0.62 0.70
0.12 0.12 0.14 0.17 0.13 0.12 0.15 0.20 0.28 0.32 0.42 0.47 0.49 0.51 0.56 0.56 0.42 0.37 0.34 0.33 0.32 0.30 0.28 0.25 0.25 0.32 0.40 0.58 0.75 0.85 0.91 0.87 0.74 0.72 0.64 0.57 0.60 0.67 0.66 0.55 0.50 0.50 0.54 0.51
0.16 0.12 0.14 0.13 0.08 0.13 0.17 0.19 0.23 0.33 0.45 0.50 0.52 0.58 0.88 0.92 0.60 0.42 0.38 0.34 0.36 0.34 0.32 0.29 0.26 0.26 0.29 0.35 0.45 0.54 0.60 0.61 0.52 0.51 0.62 0.65 0.67 0.65 0.58 0.47 0.48 0.48 0.42 0.38
0.21 0.19 0.22 0.13 0.08 0.13 0.16 0.16 0.16 0.18 0.21 0.27 0.39 0.53 0.70 0.79 0.64 0.46 0.43 0.36 0.33 0.30 0.28 0.26 0.23 0.24 0.26 0.26 0.29 0.32 0.32 0.30 0.27 0.36 0.50 0.53 0.50 0.46 0.41 0.41 0.45 0.50 0.43 0.39
0.24 0.33 0.26 0.09 0.06 0.09 0.11 0.09 0.07 0.08 0.09 0.11 0.15 0.17 0.18 0.23 0.27 0.24 0.20 0.17 0.15 0.13 0.12 0.12 0.12 0.13 0.13 0.11 0.12 0.13 0.13 0.13 0.16 0.19 0.22 0.24 0.21 0.23 0.30 0.36 0.40 0.36 0.40 0.53
0.26 0.31 0.24 0.10 0.05 0.05 0.09 0.13 0.06 0.04 0.04 0.05 0.08 0.13 0.12 0.17 0.12 0.06 0.05 0.05 0.07 0.09 0.09 0.09 0.09 0.11 0.10 0.10 0.10 0.10 0.11 0.13 0.14 0.14 0.17 0.17 0.18 0.19 0.22 0.25 0.31 0.33 0.37 0.50
0.21 0.29 0.16 0.06 0.05 0.07 0.13 0.13 0.05 0.04 0.03 0.03 0.04 0.06 0.06 0.12 0.10 0.03 0.05 0.06 0.07 0.08 0.08 0.09 0.09 0.10 0.10 0.09 0.11 0.14 0.15 0.14 0.12 0.13 0.16 0.21 0.25 0.24 0.23 0.22 0.24 0.28 0.32 0.38
0.17 0.22 0.17 0.06 0.06 0.09 0.10 0.06 0.05 0.05 0.04 0.03 0.04 0.04 0.04 0.07 0.08 0.04 0.05 0.06 0.09 0.09 0.09 0.11 0.11 0.11 0.11 0.10 0.13 0.16 0.15 0.15 0.14 0.15 0.18 0.21 0.29 0.31 0.27 0.26 0.23 0.23 0.29 0.36
0.17 0.15 0.10 0.07 0.07 0.08 0.07 0.05 0.04 0.05 0.05 0.04 0.03 0.03 0.03 0.06 0.11 0.06 0.05 0.06 0.08 0.10 0.12 0.12 0.13 0.14 0.14 0.14 0.15 0.16 0.16 0.15 0.16 0.17 0.19 0.21 0.24 0.26 0.28 0.26 0.27 0.27 0.29 0.33
0.14 0.09 0.07 0.08 0.09 0.07 0.06 0.05 0.04 0.05 0.06 0.06 0.06 0.05 0.05 0.06 0.10 0.09 0.07 0.05 0.06 0.07 0.10 0.15 0.17 0.18 0.19 0.20 0.21 0.20 0.19 0.19 0.18 0.20 0.22 0.25 0.27 0.29 0.30 0.32 0.32 0.32 0.32 0.36
0.13 0.09 0.07 0.08 0.09 0.10 0.08 0.06 0.05 0.06 0.07 0.08 0.09 0.09 0.07 0.06 0.07 0.08 0.10 0.09 0.07 0.07 0.08 0.12 0.17 0.19 0.21 0.21 0.22 0.23 0.23 0.23 0.23 0.23 0.24 0.28 0.32 0.34 0.32 0.33 0.35 0.33 0.35 0.38
0.12 0.08 0.09 0.08 0.09 0.11 0.12 0.09 0.07 0.05 0.06 0.07 0.08 0.08 0.07 0.08 0.07 0.08 0.08 0.08 0.09 0.09 0.09 0.09 0.12 0.13 0.16 0.16 0.18 0.20 0.24 0.25 0.23 0.26 0.30 0.31 0.31 0.30 0.32 0.32 0.35 0.34 0.33 0.35
0.07 0.07 0.07 0.07 0.07 0.08 0.11 0.11 0.08 0.06 0.07 0.08 0.09 0.10 0.10 0.10 0.10 0.09 0.09 0.08 0.10 0.11 0.10 0.10 0.09 0.11 0.12 0.14 0.17 0.19 0.20 0.21 0.21 0.23 0.24 0.28 0.29 0.29 0.31 0.32 0.33 0.33 0.32 0.33
0.05 0.06 0.07 0.07 0.07 0.07 0.09 0.10 0.08 0.07 0.08 0.09 0.10 0.11 0.13 0.13 0.13 0.12 0.11 0.10 0.11 0.10 0.12 0.11 0.10 0.11 0.12 0.14 0.17 0.19 0.22 0.27 0.25 0.22 0.23 0.24 0.24 0.26 0.30 0.33 0.35 0.33 0.33 0.32
0.05 0.04 0.06 0.06 0.06 0.06 0.07 0.09 0.09 0.09 0.10 0.10 0.10 0.13 0.16 0.15 0.14 0.15 0.15 0.13 0.11 0.10 0.12 0.13 0.13 0.13 0.13 0.12 0.14 0.16 0.19 0.24 0.29 0.28 0.26 0.28 0.28 0.24 0.25 0.28 0.31 0.32 0.32 0.31
0.08 0.05 0.05 0.04 0.04 0.05 0.06 0.09 0.11 0.12 0.11 0.12 0.11 0.14 0.16 0.15 0.15 0.16 0.17 0.15 0.13 0.12 0.12 0.12 0.13 0.15 0.16 0.15 0.15 0.15 0.17 0.22 0.28 0.31 0.31 0.29 0.30 0.28 0.25 0.23 0.23 0.25 0.27 0.30
0.13 0.10 0.08 0.08 0.07 0.06 0.05 0.08 0.10 0.13 0.13 0.12 0.14 0.14 0.15 0.15 0.14 0.14 0.16 0.16 0.15 0.13 0.14 0.13 0.14 0.16 0.17 0.16 0.16 0.15 0.16 0.19 0.25 0.31 0.31 0.29 0.29 0.29 0.28 0.26 0.25 0.26 0.26 0.30
0.12 0.13 0.11 0.11 0.09 0.07 0.05 0.05 0.07 0.10 0.12 0.12 0.12 0.12 0.14 0.15 0.15 0.14 0.14 0.14 0.15 0.13 0.13 0.14 0.14 0.15 0.16 0.16 0.15 0.16 0.18 0.19 0.22 0.26 0.30 0.32 0.30 0.29 0.29 0.27 0.27 0.27 0.28 0.29
0.11 0.11 0.10 0.09 0.08 0.07 0.07 0.07 0.07 0.07 0.09 0.10 0.10 0.10 0.11 0.13 0.14 0.13 0.13 0.12 0.13 0.12 0.12 0.12 0.16 0.16 0.16 0.17 0.18 0.19 0.22 0.24 0.26 0.28 0.29 0.32 0.32 0.30 0.32 0.33 0.33 0.32 0.32 0.31
0.09 0.08 0.08 0.08 0.08 0.09 0.09 0.08 0.07 0.08 0.08 0.09 0.09 0.09 0.10 0.11 0.13 0.14 0.13 0.11 0.12 0.13 0.12 0.11 0.11 0.12 0.12 0.14 0.19 0.22 0.26 0.27 0.28 0.27 0.29 0.30 0.30 0.31 0.34 0.35 0.36 0.36 0.35 0.34
0.10 0.08 0.08 0.07 0.07 0.08 0.09 0.09 0.07 0.06 0.07 0.08 0.09 0.09 0.09 0.11 0.14 0.16 0.16 0.15 0.15 0.14 0.13 0.14 0.12 0.12 0.14 0.17 0.18 0.18 0.23 0.26 0.28 0.28 0.30 0.32 0.33 0.35 0.37 0.39 0.39 0.41 0.43 0.43
0.10 0.10 0.09 0.08 0.07 0.07 0.06 0.07 0.07 0.06 0.06 0.07 0.08 0.08 0.09 0.10 0.11 0.14 0.17 0.20 0.21 0.21 0.17 0.14 0.14 0.17 0.21 0.25 0.22 0.21 0.23 0.27 0.31 0.33 0.35 0.38 0.40 0.39 0.41 0.43 0.43 0.43 0.44 0.46
0.12 0.11 0.11 0.10 0.09 0.08 0.06 0.06 0.05 0.05 0.05 0.06 0.08 0.10 0.12 0.13 0.13 0.16 0.20 0.23 0.23 0.25 0.22 0.22 0.25 0.26 0.27 0.25 0.23 0.22 0.24 0.28 0.32 0.33 0.35 0.40 0.43 0.44 0.45 0.46 0.48 0.47 0.47 0.47
0.12 0.12 0.13 0.13 0.13 0.12 0.10 0.08 0.07 0.07 0.06 0.07 0.08 0.10 0.13 0.15 0.17 0.20 0.23 0.27 0.29 0.29 0.24 0.25 0.29 0.32 0.33 0.28 0.26 0.24 0.25 0.28 0.32 0.34 0.35 0.37 0.40 0.42 0.45 0.48 0.53 0.55 0.56 0.58
0.13 0.15 0.18 0.18 0.19 0.19 0.17 0.14 0.11 0.11 0.10 0.10 0.11 0.12 0.13 0.14 0.18 0.21 0.24 0.26 0.29 0.28 0.25 0.26 0.29 0.31 0.28 0.27 0.27 0.27 0.25 0.27 0.31 0.32 0.33 0.36 0.38 0.41 0.45 0.47 0.53 0.59 0.62 0.64
0.15 0.15 0.19 0.20 0.20 0.19 0.18 0.17 0.17 0.15 0.14 0.14 0.13 0.12 0.12 0.12 0.13 0.16 0.19 0.22 0.27 0.30 0.27 0.26 0.25 0.26 0.25 0.25 0.26 0.28 0.28 0.27 0.27 0.28 0.30 0.34 0.36 0.38 0.41 0.44 0.48 0.54 0.59 0.61
0.20 0.19 0.19 0.22 0.23 0.22 0.19 0.20 0.23 0.22 0.20 0.18 0.18 0.17 0.16 0.16 0.16 0.16 0.17 0.19 0.22 0.26 0.29 0.30 0.29 0.28 0.28 0.27 0.28 0.30 0.32 0.33 0.34 0.35 0.36 0.38 0.40 0.42 0.44 0.47 0.49 0.54 0.57 0.57

GEFSNGP_prec_meanprecacc_258.txt.gz
Total_Precipitation_Accumulation
0.15 0.17 0.23 0.44 0.49 0.40 0.40 0.40 0.47 0.43 0.46 0.54 0.60 0.64 0.66 0.67 0.59 0.50 0.45 0.42 0.39 0.36 0.37 0.39 0.44 0.51 0.60 0.90 1.10 1.11 1.11 0.98 0.88 0.80 0.72 0.68 0.66 0.66 0.61 0.56 0.55 0.55 0.62 0.71
0.13 0.13 0.15 0.18 0.13 0.12 0.15 0.21 0.28 0.32 0.42 0.47 0.49 0.51 0.56 0.56 0.42 0.37 0.34 0.33 0.33 0.31 0.28 0.26 0.27 0.33 0.41 0.59 0.76 0.86 0.91 0.87 0.75 0.72 0.65 0.57 0.61 0.68 0.67 0.55 0.50 0.51 0.54 0.52
0.17 0.13 0.14 0.13 0.08 0.13 0.17 0.19 0.23 0.33 0.45 0.50 0.52 0.58 0.88 0.92 0.60 0.42 0.38 0.34 0.36 0.35 0.32 0.30 0.27 0.27 0.29 0.35 0.45 0.54 0.60 0.62 0.52 0.52 0.63 0.66 0.67 0.66 0.58 0.48 0.49 0.48 0.43 0.38
0.22 0.20 0.22 0.13 0.08 0.13 0.16 0.16 0.16 0.18 0.21 0.27 0.39 0.53 0.70 0.79 0.64 0.46 0.43 0.36 0.33 0.31 0.29 0.27 0.25 0.25 0.26 0.26 0.29 0.33 0.32 0.31 0.28 0.37 0.51 0.54 0.50 0.47 0.42 0.41 0.45 0.51 0.43 0.40
0.26 0.34 0.27 0.09 0.06 0.09 0.11 0.09 0.07 0.09 0.09 0.11 0.15 0.17 0.18 0.23 0.27 0.24 0.20 0.17 0.15 0.13 0.13 0.12 0.13 0.14 0.14 0.11 0.13 0.14 0.13 0.14 0.17 0.19 0.23 0.24 0.22 0.24 0.30 0.37 0.41 0.37 0.40 0.54
0.27 0.33 0.25 0.10 0.05 0.05 0.09 0.13 0.06 0.05 0.04 0.05 0.08 0.13 0.12 0.17 0.12 0.06 0.05 0.05 0.07 0.09 0.09 0.09 0.10 0.12 0.11 0.10 0.10 0.10 0.12 0.13 0.14 0.15 0.18 0.18 0.19 0.20 0.23 0.26 0.32 0.34 0.38 0.52
0.22 0.30 0.17 0.06 0.05 0.07 0.13 0.13 0.05 0.04 0.03 0.03 0.04 0.06 0.06 0.12 0.10 0.03 0.05 0.06 0.07 0.08 0.08 0.09 0.09 0.11 0.10 0.09 0.11 0.15 0.16 0.14 0.13 0.14 0.16 0.22 0.26 0.25 0.24 0.23 0.25 0.29 0.33 0.39
0.18 0.23 0.17 0.06 0.06 0.10 0.10 0.06 0.05 0.05 0.04 0.03 0.04 0.04 0.04 0.07 0.08 0.04 0.05 0.06 0.09 0.09 0.09 0.11 0.12 0.11 0.12 0.10 0.13 0.17 0.16 0.15 0.15 0.16 0.19 0.22 0.30 0.32 0.28 0.26 0.24 0.25 0.30 0.37
0.18 0.15 0.10 0.07 0.07 0.08 0.07 0.06 0.05 0.06 0.05 0.04 0.03 0.03 0.03 0.06 0.11 0.06 0.05 0.06 0.08 0.10 0.12 0.12 0.13 0.14 0.14 0.15 0.16 0.17 0.17 0.17 0.18 0.19 0.21 0.22 0.25 0.27 0.29 0.28 0.28 0.29 0.31 0.35
0.14 0.10 0.07 0.08 0.09 0.08 0.06 0.05 0.04 0.05 0.06 0.06 0.06 0.05 0.05 0.06 0.10 0.09 0.07 0.06 0.06 0.08 0.11 0.15 0.17 0.18 0.19 0.20 0.22 0.21 0.20 0.20 0.19 0.21 0.24 0.26 0.28 0.29 0.32 0.34 0.34 0.34 0.35 0.38
0.13 0.09 0.07 0.08 0.10 0.11 0.08 0.06 0.05 0.06 0.07 0.08 0.09 0.09 0.07 0.06 0.07 0.08 0.10 0.09 0.07 0.07 0.09 0.13 0.17 0.19 0.21 0.22 0.23 0.24 0.24 0.24 0.24 0.24 0.26 0.29 0.33 0.35 0.33 0.34 0.36 0.34 0.36 0.39
0.12 0.08 0.09 0.08 0.09 0.11 0.12 0.10 0.07 0.06 0.06 0.07 0.08 0.08 0.07 0.08 0.07 0.08 0.08 0.08 0.09 0.09 0.09 0.10 0.12 0.13 0.16 0.17 0.19 0.21 0.25 0.26 0.24 0.27 0.31 0.32 0.33 0.32 0.33 0.34 0.36 0.35 0.33 0.36
0.07 0.07 0.07 0.07 0.07 0.08 0.11 0.11 0.08 0.06 0.07 0.08 0.09 0.10 0.10 0.10 0.10 0.09 0.09 0.08 0.10 0.11 0.11 0.10 0.09 0.11 0.13 0.15 0.18 0.21 0.22 0.22 0.22 0.24 0.25 0.28 0.30 0.30 0.33 0.34 0.34 0.34 0.33 0.34
0.06 0.06 0.07 0.07 0.07 0.07 0.09 0.10 0.08 0.07 0.08 0.09 0.10 0.12 0.14 0.14 0.13 0.12 0.11 0.10 0.12 0.11 0.12 0.11 0.10 0.11 0.13 0.14 0.18 0.21 0.23 0.28 0.26 0.23 0.24 0.25 0.25 0.26 0.31 0.34 0.36 0.34 0.34 0.33
0.05 0.05 0.06 0.06 0.06 0.06 0.07 0.09 0.09 0.09 0.10 0.11 0.11 0.13 0.16 0.15 0.14 0.15 0.15 0.13 0.11 0.10 0.12 0.13 0.13 0.13 0.13 0.12 0.14 0.18 0.22 0.26 0.30 0.28 0.27 0.28 0.28 0.25 0.25 0.29 0.32 0.33 0.33 0.32
0.08 0.05 0.05 0.04 0.05 0.05 0.06 0.09 0.11 0.12 0.11 0.12 0.12 0.14 0.16 0.16 0.15 0.16 0.18 0.16 0.14 0.12 0.12 0.13 0.13 0.15 0.16 0.15 0.16 0.16 0.19 0.26 0.30 0.32 0.31 0.29 0.30 0.28 0.25 0.24 0.25 0.26 0.28 0.31
0.13 0.10 0.09 0.08 0.07 0.06 0.06 0.08 0.11 0.13 0.13 0.13 0.14 0.15 0.15 0.15 0.14 0.14 0.16 0.16 0.15 0.13 0.14 0.13 0.14 0.16 0.18 0.17 0.16 0.15 0.17 0.22 0.30 0.34 0.31 0.29 0.29 0.29 0.28 0.27 0.26 0.27 0.28 0.31
0.13 0.13 0.11 0.11 0.10 0.08 0.06 0.06 0.08 0.11 0.13 0.13 0.12 0.12 0.14 0.15 0.15 0.14 0.14 0.15 0.15 0.13 0.13 0.14 0.14 0.16 0.16 0.16 0.16 0.17 0.18 0.21 0.26 0.30 0.34 0.34 0.31 0.29 0.29 0.28 0.27 0.28 0.29 0.30
0.11 0.11 0.10 0.09 0.09 0.08 0.07 0.07 0.07 0.08 0.09 0.11 0.11 0.10 0.11 0.13 0.14 0.13 0.13 0.13 0.13 0.12 0.12 0.12 0.16 0.17 0.16 0.18 0.19 0.20 0.23 0.24 0.27 0.30 0.33 0.37 0.37 0.33 0.33 0.34 0.33 0.33 0.34 0.32
0.09 0.08 0.08 0.08 0.08 0.09 0.09 0.08 0.08 0.08 0.09 0.09 0.09 0.10 0.10 0.11 0.13 0.14 0.13 0.12 0.13 0.14 0.12 0.12 0.11 0.12 0.12 0.15 0.20 0.23 0.27 0.28 0.28 0.28 0.30 0.32 0.34 0.36 0.37 0.38 0.38 0.37 0.36 0.35
0.10 0.08 0.08 0.07 0.07 0.08 0.09 0.09 0.07 0.07 0.07 0.08 0.09 0.09 0.10 0.11 0.14 0.17 0.16 0.15 0.15 0.14 0.13 0.14 0.12 0.13 0.15 0.18 0.19 0.19 0.24 0.28 0.29 0.30 0.31 0.33 0.35 0.37 0.40 0.43 0.43 0.43 0.44 0.45
0.11 0.10 0.09 0.08 0.07 0.07 0.06 0.07 0.07 0.06 0.06 0.07 0.08 0.09 0.09 0.10 0.12 0.14 0.17 0.20 0.21 0.22 0.17 0.15 0.15 0.18 0.22 0.26 0.23 0.22 0.24 0.28 0.32 0.34 0.36 0.39 0.41 0.40 0.43 0.46 0.47 0.47 0.47 0.47
0.12 0.12 0.11 0.10 0.09 0.08 0.06 0.06 0.05 0.05 0.05 0.06 0.08 0.10 0.12 0.13 0.13 0.16 0.20 0.23 0.24 0.25 0.23 0.23 0.26 0.27 0.29 0.27 0.25 0.24 0.25 0.29 0.33 0.34 0.36 0.41 0.44 0.46 0.46 0.48 0.50 0.51 0.51 0.50
0.14 0.13 0.14 0.14 0.13 0.12 0.10 0.08 0.07 0.07 0.06 0.07 0.08 0.10 0.13 0.16 0.17 0.20 0.23 0.28 0.30 0.30 0.25 0.25 0.30 0.33 0.34 0.30 0.27 0.25 0.26 0.29 0.33 0.35 0.36 0.38 0.41 0.43 0.46 0.50 0.56 0.58 0.59 0.61
0.16 0.17 0.19 0.19 0.19 0.19 0.17 0.15 0.12 0.11 0.11 0.10 0.11 0.12 0.13 0.15 0.18 0.21 0.24 0.26 0.29 0.29 0.25 0.26 0.29 0.31 0.28 0.27 0.28 0.27 0.26 0.28 0.31 0.33 0.34 0.37 0.39 0.42 0.46 0.49 0.55 0.62 0.66 0.68
0.16 0.17 0.21 0.22 0.21 0.20 0.19 0.18 0.18 0.17 0.16 0.15 0.13 0.12 0.12 0.12 0.13 0.16 0.20 0.23 0.27 0.30 0.28 0.26 0.26 0.27 0.25 0.26 0.27 0.29 0.28 0.28 0.28 0.29 0.31 0.36 0.38 0.39 0.43 0.46 0.50 0.57 0.63 0.65
0.21 0.20 0.21 0.24 0.25 0.23 0.21 0.22 0.24 0.24 0.22 0.20 0.19 0.17 0.16 0.16 0.16 0.16 0.17 0.19 0.22 0.27 0.29 0.30 0.29 0.28 0.28 0.28 0.28 0.31 0.33 0.34 0.35 0.36 0.37 0.39 0.42 0.44 0.47 0.49 0.52 0.56 0.59 0.60

GEFSNGP_prec_meanprecacc_264.txt.gz
Total_Precipitation_Accumulation
0.15 0.17 0.24 0.44 0.49 0.40 0.41 0.41 0.49 0.44 0.48 0.55 0.61 0.64 0.66 0.67 0.59 0.50 0.46 0.42 0.39 0.36 0.38 0.39 0.45 0.51 0.61 0.90 1.11 1.12 1.11 0.99 0.89 0.81 0.74 0.69 0.67 0.68 0.62 0.56 0.56 0.56 0.64 0.72
0.13 0.13 0.15 0.18 0.13 0.12 0.15 0.21 0.29 0.34 0.44 0.48 0.50 0.52 0.56 0.56 0.42 0.37 0.34 0.33 0.33 0.31 0.28 0.26 0.27 0.33 0.41 0.59 0.77 0.86 0.91 0.88 0.75 0.73 0.66 0.58 0.62 0.69 0.68 0.56 0.51 0.51 0.56 0.53
0.18 0.14 0.15 0.13 0.08 0.13 0.17 0.19 0.24 0.35 0.46 0.50 0.52 0.58 0.88 0.92 0.60 0.42 0.38 0.34 0.36 0.35 0.32 0.30 0.27 0.28 0.30 0.35 0.46 0.55 0.60 0.62 0.53 0.53 0.63 0.66 0.68 0.66 0.59 0.48 0.50 0.50 0.44 0.40
0.23 0.22 0.25 0.14 0.08 0.13 0.16 0.16 0.17 0.19 0.22 0.27 0.39 0.53 0.70 0.79 0.64 0.46 0.43 0.36 0.33 0.31 0.29 0.27 0.25 0.25 0.26 0.27 0.30 0.33 0.33 0.31 0.29 0.37 0.52 0.55 0.52 0.48 0.43 0.43 0.47 0.52 0.45 0.40
0.27 0.36 0.29 0.11 0.07 0.09 0.11 0.09 0.08 0.10 0.10 0.11 0.15 0.17 0.19 0.23 0.27 0.24 0.20 0.17 0.15 0.14 0.14 0.13 0.13 0.15 0.15 0.12 0.13 0.14 0.14 0.14 0.18 0.20 0.24 0.26 0.24 0.26 0.32 0.38 0.42 0.38 0.42 0.55
0.30 0.35 0.26 0.10 0.06 0.05 0.09 0.14 0.07 0.05 0.05 0.05 0.08 0.13 0.12 0.17 0.12 0.06 0.05 0.05 0.07 0.09 0.10 0.09 0.10 0.12 0.12 0.11 0.10 0.11 0.12 0.13 0.15 0.16 0.19 0.19 0.19 0.21 0.24 0.27 0.33 0.36 0.40 0.53
0.24 0.33 0.18 0.07 0.06 0.07 0.14 0.14 0.05 0.04 0.03 0.03 0.04 0.06 0.07 0.12 0.10 0.03 0.05 0.06 0.07 0.08 0.08 0.09 0.10 0.11 0.11 0.10 0.11 0.15 0.16 0.15 0.13 0.14 0.18 0.23 0.27 0.26 0.25 0.24 0.26 0.30 0.35 0.40
0.19 0.25 0.20 0.08 0.07 0.11 0.11 0.06 0.05 0.05 0.04 0.03 0.04 0.04 0.04 0.07 0.08 0.04 0.05 0.06 0.09 0.09 0.09 0.11 0.12 0.12 0.12 0.11 0.13 0.17 0.17 0.16 0.15 0.17 0.19 0.23 0.32 0.33 0.29 0.27 0.25 0.26 0.31 0.38
0.19 0.17 0.11 0.08 0.08 0.09 0.09 0.06 0.05 0.06 0.05 0.04 0.03 0.03 0.03 0.06 0.11 0.06 0.05 0.06 0.08 0.10 0.12 0.12 0.13 0.14 0.15 0.15 0.16 0.18 0.17 0.17 0.18 0.20 0.22 0.23 0.26 0.29 0.30 0.29 0.29 0.30 0.32 0.36
0.14 0.10 0.07 0.09 0.10 0.09 0.07 0.05 0.04 0.05 0.06 0.06 0.06 0.05 0.05 0.06 0.10 0.09 0.07 0.06 0.06 0.08 0.11 0.15 0.17 0.18 0.19 0.21 0.22 0.21 0.20 0.20 0.20 0.22 0.25 0.26 0.29 0.30 0.32 0.35 0.35 0.35 0.36 0.40
0.13 0.10 0.08 0.08 0.10 0.11 0.09 0.06 0.05 0.06 0.07 0.08 0.09 0.09 0.07 0.06 0.07 0.08 0.11 0.10 0.07 0.07 0.09 0.13 0.17 0.19 0.22 0.22 0.23 0.24 0.24 0.24 0.24 0.25 0.26 0.30 0.34 0.35 0.34 0.35 0.38 0.35 0.37 0.41
0.13 0.09 0.09 0.09 0.09 0.11 0.12 0.10 0.07 0.06 0.06 0.07 0.08 0.08 0.07 0.08 0.07 0.08 0.08 0.08 0.09 0.09 0.09 0.10 0.12 0.13 0.17 0.17 0.19 0.21 0.26 0.26 0.24 0.27 0.31 0.32 0.33 0.33 0.34 0.35 0.37 0.35 0.34 0.37
0.07 0.07 0.07 0.07 0.08 0.09 0.12 0.11 0.08 0.07 0.07 0.08 0.10 0.10 0.10 0.10 0.10 0.10 0.09 0.08 0.10 0.11 0.11 0.10 0.10 0.11 0.13 0.15 0.18 0.21 0.22 0.22 0.22 0.24 0.26 0.29 0.31 0.32 0.35 0.35 0.36 0.35 0.34 0.35
0.06 0.06 0.07 0.07 0.07 0.07 0.09 0.10 0.08 0.07 0.09 0.10 0.11 0.13 0.14 0.14 0.14 0.13 0.12 0.10 0.12 0.11 0.12 0.11 0.10 0.11 0.13 0.14 0.18 0.21 0.23 0.28 0.27 0.24 0.25 0.26 0.26 0.28 0.33 0.36 0.38 0.36 0.35 0.35
0.05 0.05 0.06 0.06 0.06 0.06 0.07 0.09 0.09 0.09 0.10 0.11 0.11 0.13 0.17 0.16 0.15 0.15 0.15 0.13 0.11 0.10 0.12 0.13 0.13 0.13 0.13 0.13 0.15 0.18 0.22 0.27 0.30 0.29 0.28 0.30 0.30 0.26 0.27 0.31 0.34 0.35 0.36 0.34
0.08 0.06 0.05 0.04 0.05 0.05 0.06 0.09 0.11 0.12 0.12 0.12 0.12 0.14 0.16 0.16 0.16 0.17 0.18 0.16 0.14 0.13 0.12 0.13 0.14 0.15 0.16 0.15 0.16 0.16 0.19 0.26 0.31 0.33 0.32 0.31 0.32 0.30 0.27 0.26 0.26 0.29 0.31 0.33
0.13 0.11 0.09 0.09 0.08 0.07 0.06 0.08 0.11 0.14 0.14 0.13 0.15 0.15 0.16 0.16 0.15 0.15 0.17 0.17 0.15 0.14 0.14 0.14 0.15 0.16 0.18 0.17 0.16 0.15 0.17 0.23 0.30 0.35 0.32 0.30 0.31 0.31 0.30 0.29 0.28 0.29 0.31 0.35
0.14 0.14 0.12 0.12 0.10 0.08 0.06 0.06 0.08 0.11 0.14 0.13 0.13 0.13 0.14 0.16 0.15 0.15 0.16 0.16 0.16 0.14 0.14 0.14 0.15 0.16 0.17 0.17 0.16 0.17 0.19 0.21 0.26 0.31 0.35 0.35 0.32 0.31 0.30 0.29 0.28 0.30 0.31 0.33
0.12 0.12 0.11 0.09 0.09 0.08 0.07 0.07 0.07 0.08 0.10 0.11 0.11 0.11 0.11 0.14 0.15 0.14 0.13 0.14 0.14 0.13 0.13 0.13 0.17 0.17 0.17 0.18 0.20 0.20 0.23 0.25 0.27 0.31 0.34 0.39 0.39 0.35 0.35 0.35 0.34 0.34 0.35 0.35
0.09 0.08 0.08 0.08 0.09 0.09 0.09 0.08 0.08 0.08 0.09 0.10 0.10 0.11 0.11 0.12 0.14 0.15 0.13 0.12 0.14 0.15 0.13 0.12 0.12 0.12 0.13 0.16 0.20 0.23 0.27 0.29 0.29 0.29 0.31 0.34 0.36 0.38 0.40 0.40 0.39 0.38 0.38 0.38
0.10 0.09 0.08 0.08 0.07 0.08 0.09 0.09 0.07 0.07 0.07 0.08 0.09 0.10 0.10 0.11 0.15 0.17 0.17 0.16 0.16 0.15 0.14 0.15 0.13 0.13 0.15 0.18 0.20 0.20 0.25 0.29 0.30 0.31 0.32 0.34 0.37 0.39 0.43 0.47 0.46 0.45 0.46 0.46
0.11 0.10 0.09 0.08 0.07 0.07 0.06 0.07 0.07 0.06 0.06 0.07 0.08 0.09 0.10 0.10 0.12 0.14 0.18 0.21 0.22 0.22 0.18 0.15 0.15 0.18 0.23 0.27 0.24 0.24 0.25 0.29 0.33 0.35 0.37 0.40 0.42 0.42 0.46 0.50 0.50 0.50 0.49 0.50
0.12 0.12 0.11 0.10 0.09 0.08 0.06 0.06 0.05 0.05 0.06 0.06 0.08 0.10 0.13 0.13 0.13 0.16 0.21 0.24 0.24 0.26 0.24 0.23 0.26 0.28 0.30 0.28 0.26 0.25 0.26 0.30 0.34 0.35 0.37 0.42 0.45 0.47 0.48 0.50 0.53 0.54 0.55 0.54
0.14 0.14 0.14 0.14 0.13 0.12 0.10 0.09 0.08 0.07 0.07 0.07 0.08 0.10 0.13 0.16 0.18 0.20 0.24 0.28 0.30 0.30 0.25 0.26 0.31 0.35 0.35 0.31 0.28 0.26 0.27 0.30 0.34 0.36 0.37 0.39 0.42 0.44 0.48 0.52 0.59 0.61 0.63 0.66
0.16 0.17 0.19 0.19 0.20 0.20 0.18 0.15 0.13 0.12 0.11 0.11 0.11 0.12 0.13 0.15 0.18 0.22 0.24 0.26 0.30 0.29 0.26 0.27 0.30 0.33 0.30 0.29 0.29 0.29 0.27 0.29 0.33 0.34 0.35 0.38 0.41 0.44 0.48 0.51 0.58 0.66 0.70 0.72
0.17 0.18 0.22 0.23 0.22 0.21 0.20 0.19 0.19 0.18 0.17 0.16 0.14 0.13 0.13 0.13 0.14 0.16 0.20 0.23 0.28 0.31 0.28 0.27 0.27 0.28 0.27 0.27 0.29 0.30 0.30 0.30 0.30 0.30 0.32 0.37 0.39 0.41 0.45 0.48 0.53 0.60 0.67 0.69
0.21 0.20 0.21 0.25 0.26 0.25 0.23 0.24 0.26 0.26 0.25 0.24 0.22 0.19 0.18 0.17 0.17 0.17 0.18 0.20 0.23 0.27 0.30 0.31 0.30 0.29 0.29 0.29 0.29 0.32 0.34 0.35 0.36 0.37 0.38 0.40 0.43 0.46 0.48 0.51 0.54 0.58 0.62 0.63

GEFSNGP_prec_meanprecacc_270.txt.gz
Total_Precipitation_Accumulation
0.15 0.17 0.24 0.44 0.50 0.42 0.43 0.42 0.49 0.45 0.50 0.58 0.63 0.66 0.68 0.68 0.60 0.51 0.46 0.43 0.39 0.37 0.38 0.40 0.45 0.52 0.62 0.91 1.12 1.14 1.13 1.01 0.90 0.82 0.75 0.70 0.68 0.69 0.63 0.57 0.56 0.56 0.66 0.74
0.14 0.13 0.15 0.18 0.14 0.14 0.17 0.22 0.30 0.35 0.46 0.50 0.52 0.54 0.60 0.59 0.43 0.38 0.34 0.33 0.34 0.31 0.28 0.26 0.27 0.34 0.42 0.60 0.78 0.88 0.92 0.88 0.75 0.73 0.66 0.59 0.62 0.70 0.69 0.57 0.52 0.52 0.57 0.55
0.19 0.15 0.16 0.14 0.09 0.14 0.17 0.20 0.25 0.37 0.49 0.54 0.56 0.63 0.94 0.94 0.62 0.43 0.39 0.34 0.36 0.35 0.33 0.30 0.28 0.29 0.31 0.37 0.48 0.56 0.61 0.63 0.54 0.54 0.64 0.67 0.69 0.67 0.59 0.49 0.50 0.51 0.46 0.41
0.24 0.23 0.27 0.15 0.08 0.13 0.16 0.17 0.19 0.22 0.25 0.30 0.43 0.57 0.73 0.80 0.66 0.47 0.43 0.36 0.34 0.31 0.30 0.28 0.25 0.26 0.28 0.30 0.32 0.34 0.34 0.33 0.30 0.39 0.53 0.56 0.53 0.49 0.44 0.44 0.47 0.52 0.45 0.41
0.28 0.37 0.30 0.11 0.07 0.09 0.11 0.10 0.09 0.12 0.12 0.13 0.18 0.20 0.21 0.25 0.28 0.25 0.21 0.18 0.15 0.14 0.14 0.13 0.14 0.16 0.16 0.13 0.16 0.16 0.14 0.15 0.19 0.21 0.25 0.27 0.25 0.27 0.33 0.39 0.43 0.39 0.43 0.56
0.30 0.36 0.27 0.11 0.06 0.06 0.10 0.15 0.09 0.08 0.07 0.06 0.10 0.15 0.14 0.19 0.13 0.07 0.06 0.06 0.07 0.09 0.10 0.10 0.11 0.13 0.12 0.12 0.12 0.12 0.13 0.14 0.16 0.18 0.20 0.20 0.21 0.23 0.25 0.28 0.34 0.37 0.41 0.54
0.25 0.34 0.19 0.08 0.06 0.08 0.16 0.16 0.07 0.05 0.04 0.04 0.05 0.07 0.07 0.13 0.11 0.04 0.06 0.07 0.08 0.09 0.09 0.10 0.10 0.12 0.11 0.10 0.12 0.16 0.17 0.16 0.15 0.16 0.20 0.25 0.28 0.27 0.26 0.25 0.27 0.31 0.36 0.41
0.21 0.27 0.21 0.08 0.08 0.13 0.13 0.07 0.06 0.06 0.05 0.04 0.05 0.05 0.05 0.07 0.09 0.05 0.06 0.07 0.09 0.10 0.11 0.13 0.13 0.13 0.13 0.12 0.14 0.18 0.18 0.17 0.17 0.18 0.20 0.24 0.33 0.33 0.29 0.28 0.26 0.27 0.32 0.40
0.21 0.20 0.13 0.09 0.10 0.12 0.12 0.09 0.07 0.08 0.07 0.05 0.04 0.04 0.04 0.06 0.11 0.07 0.06 0.06 0.09 0.11 0.13 0.14 0.15 0.16 0.16 0.17 0.17 0.18 0.18 0.19 0.20 0.21 0.23 0.24 0.27 0.30 0.31 0.29 0.30 0.31 0.33 0.38
0.16 0.12 0.09 0.10 0.11 0.10 0.09 0.09 0.08 0.09 0.10 0.08 0.07 0.06 0.06 0.06 0.10 0.09 0.07 0.06 0.07 0.08 0.12 0.16 0.19 0.19 0.20 0.22 0.23 0.22 0.21 0.22 0.22 0.23 0.25 0.27 0.29 0.31 0.34 0.36 0.36 0.35 0.36 0.41
0.14 0.10 0.08 0.09 0.11 0.12 0.10 0.08 0.08 0.09 0.11 0.11 0.12 0.11 0.08 0.07 0.08 0.08 0.11 0.10 0.08 0.08 0.09 0.13 0.18 0.20 0.23 0.23 0.24 0.25 0.25 0.25 0.26 0.26 0.27 0.31 0.34 0.36 0.35 0.36 0.38 0.36 0.38 0.42
0.13 0.09 0.09 0.09 0.09 0.11 0.13 0.11 0.09 0.08 0.09 0.10 0.11 0.11 0.09 0.09 0.08 0.08 0.08 0.09 0.09 0.10 0.10 0.10 0.13 0.14 0.17 0.18 0.20 0.22 0.26 0.27 0.25 0.28 0.32 0.33 0.34 0.34 0.35 0.36 0.39 0.37 0.36 0.38
0.07 0.07 0.07 0.07 0.08 0.09 0.12 0.11 0.09 0.08 0.09 0.11 0.12 0.12 0.12 0.12 0.12 0.11 0.10 0.09 0.11 0.11 0.11 0.11 0.10 0.12 0.13 0.15 0.19 0.22 0.22 0.23 0.23 0.25 0.26 0.29 0.32 0.33 0.36 0.37 0.37 0.36 0.36 0.37
0.06 0.06 0.07 0.07 0.07 0.07 0.09 0.10 0.08 0.08 0.09 0.10 0.12 0.14 0.16 0.16 0.15 0.14 0.13 0.11 0.13 0.11 0.13 0.11 0.11 0.12 0.13 0.15 0.18 0.22 0.24 0.29 0.28 0.25 0.26 0.26 0.27 0.29 0.34 0.38 0.39 0.37 0.37 0.36
0.05 0.05 0.06 0.06 0.06 0.06 0.07 0.09 0.09 0.09 0.10 0.11 0.11 0.14 0.17 0.16 0.15 0.16 0.16 0.14 0.12 0.11 0.12 0.13 0.14 0.14 0.14 0.14 0.16 0.19 0.23 0.28 0.31 0.31 0.29 0.30 0.31 0.27 0.28 0.32 0.36 0.37 0.38 0.37
0.08 0.06 0.05 0.05 0.05 0.06 0.07 0.09 0.11 0.12 0.12 0.12 0.12 0.15 0.17 0.17 0.17 0.18 0.19 0.17 0.14 0.13 0.12 0.13 0.14 0.15 0.17 0.16 0.17 0.18 0.21 0.28 0.32 0.34 0.33 0.32 0.33 0.31 0.29 0.28 0.29 0.31 0.34 0.37
0.14 0.11 0.09 0.09 0.08 0.07 0.07 0.08 0.11 0.14 0.14 0.14 0.15 0.15 0.16 0.16 0.16 0.16 0.18 0.17 0.16 0.14 0.14 0.14 0.15 0.17 0.18 0.18 0.17 0.17 0.19 0.24 0.31 0.35 0.33 0.31 0.31 0.32 0.32 0.31 0.30 0.31 0.33 0.38
0.14 0.14 0.12 0.12 0.10 0.08 0.07 0.07 0.08 0.12 0.14 0.14 0.13 0.13 0.14 0.16 0.16 0.16 0.17 0.17 0.17 0.15 0.14 0.14 0.15 0.16 0.17 0.17 0.16 0.18 0.20 0.23 0.27 0.32 0.35 0.36 0.33 0.32 0.32 0.31 0.31 0.32 0.33 0.36
0.12 0.13 0.12 0.11 0.10 0.09 0.08 0.08 0.07 0.08 0.10 0.11 0.12 0.11 0.12 0.14 0.15 0.14 0.14 0.15 0.15 0.14 0.14 0.14 0.18 0.18 0.17 0.19 0.20 0.21 0.25 0.27 0.29 0.31 0.34 0.40 0.40 0.35 0.36 0.36 0.36 0.36 0.37 0.37
0.09 0.08 0.08 0.08 0.09 0.10 0.10 0.09 0.08 0.09 0.09 0.10 0.10 0.11 0.11 0.12 0.14 0.15 0.14 0.13 0.15 0.17 0.16 0.15 0.14 0.14 0.14 0.16 0.21 0.25 0.29 0.30 0.30 0.30 0.32 0.35 0.37 0.39 0.41 0.41 0.40 0.41 0.40 0.40
0.10 0.09 0.08 0.08 0.07 0.08 0.10 0.10 0.07 0.07 0.07 0.09 0.10 0.10 0.10 0.12 0.15 0.17 0.17 0.17 0.17 0.17 0.17 0.18 0.15 0.14 0.16 0.19 0.21 0.22 0.27 0.30 0.31 0.32 0.33 0.35 0.38 0.41 0.44 0.48 0.47 0.46 0.47 0.48
0.11 0.10 0.09 0.08 0.08 0.07 0.07 0.07 0.07 0.06 0.06 0.07 0.09 0.09 0.10 0.11 0.12 0.15 0.18 0.22 0.24 0.25 0.21 0.18 0.17 0.20 0.24 0.29 0.26 0.25 0.26 0.30 0.35 0.36 0.39 0.41 0.43 0.44 0.47 0.51 0.51 0.51 0.51 0.51
0.12 0.12 0.11 0.10 0.09 0.08 0.06 0.06 0.05 0.05 0.06 0.07 0.08 0.10 0.13 0.13 0.14 0.17 0.21 0.25 0.25 0.27 0.25 0.25 0.29 0.30 0.32 0.30 0.28 0.27 0.27 0.31 0.35 0.36 0.39 0.44 0.47 0.49 0.50 0.51 0.54 0.56 0.57 0.55
0.14 0.14 0.14 0.14 0.13 0.12 0.10 0.09 0.08 0.07 0.07 0.07 0.08 0.10 0.13 0.16 0.18 0.20 0.24 0.28 0.31 0.30 0.26 0.27 0.33 0.36 0.37 0.32 0.29 0.27 0.28 0.32 0.35 0.37 0.39 0.41 0.44 0.46 0.49 0.53 0.60 0.63 0.65 0.68
0.16 0.18 0.19 0.19 0.20 0.20 0.18 0.15 0.13 0.12 0.12 0.11 0.11 0.12 0.14 0.15 0.18 0.22 0.25 0.27 0.30 0.30 0.26 0.28 0.32 0.34 0.31 0.30 0.30 0.30 0.29 0.31 0.35 0.37 0.38 0.41 0.43 0.46 0.49 0.52 0.60 0.68 0.71 0.74
0.17 0.18 0.22 0.23 0.22 0.22 0.20 0.19 0.19 0.19 0.18 0.17 0.15 0.14 0.13 0.13 0.14 0.17 0.20 0.23 0.28 0.31 0.29 0.28 0.28 0.29 0.27 0.28 0.30 0.31 0.31 0.31 0.32 0.33 0.34 0.39 0.41 0.42 0.46 0.50 0.54 0.62 0.68 0.71
0.21 0.20 0.22 0.25 0.27 0.25 0.23 0.24 0.27 0.27 0.26 0.25 0.23 0.20 0.18 0.17 0.17 0.17 0.18 0.20 0.23 0.27 0.30 0.31 0.30 0.30 0.30 0.30 0.30 0.33 0.36 0.37 0.37 0.38 0.39 0.41 0.44 0.47 0.50 0.53 0.55 0.60 0.64 0.64

GEFSNGP_prec_meanprecacc_276.txt.gz
Total_Precipitation_Accumulation
0.16 0.18 0.24 0.45 0.50 0.42 0.43 0.43 0.50 0.46 0.51 0.59 0.64 0.68 0.69 0.70 0.61 0.52 0.47 0.44 0.40 0.37 0.38 0.40 0.46 0.53 0.63 0.92 1.14 1.16 1.14 1.02 0.91 0.83 0.76 0.71 0.69 0.70 0.64 0.59 0.57 0.57 0.66 0.75
0.14 0.14 0.16 0.18 0.14 0.15 0.18 0.23 0.31 0.37 0.48 0.52 0.54 0.56 0.61 0.60 0.45 0.40 0.35 0.34 0.35 0.32 0.29 0.27 0.28 0.35 0.43 0.62 0.80 0.89 0.93 0.89 0.76 0.75 0.67 0.60 0.63 0.71 0.71 0.59 0.53 0.53 0.58 0.56
0.19 0.15 0.16 0.14 0.09 0.15 0.19 0.21 0.27 0.39 0.51 0.55 0.58 0.65 0.95 0.95 0.63 0.45 0.41 0.36 0.38 0.36 0.33 0.31 0.30 0.31 0.32 0.38 0.50 0.57 0.62 0.64 0.55 0.55 0.65 0.68 0.70 0.69 0.61 0.51 0.52 0.51 0.46 0.42
0.25 0.24 0.28 0.15 0.09 0.15 0.17 0.18 0.20 0.23 0.27 0.32 0.45 0.58 0.73 0.81 0.67 0.49 0.45 0.38 0.35 0.32 0.31 0.29 0.28 0.28 0.29 0.31 0.34 0.36 0.35 0.34 0.31 0.40 0.54 0.57 0.54 0.51 0.46 0.45 0.48 0.53 0.46 0.42
0.29 0.38 0.31 0.12 0.08 0.10 0.12 0.12 0.10 0.12 0.13 0.15 0.19 0.21 0.21 0.25 0.28 0.26 0.22 0.19 0.17 0.15 0.15 0.15 0.16 0.19 0.18 0.15 0.18 0.17 0.16 0.17 0.21 0.23 0.26 0.28 0.26 0.28 0.35 0.40 0.44 0.40 0.44 0.57
0.32 0.37 0.28 0.12 0.06 0.06 0.10 0.16 0.10 0.09 0.07 0.07 0.10 0.16 0.14 0.19 0.13 0.08 0.07 0.07 0.08 0.11 0.11 0.11 0.13 0.16 0.15 0.14 0.14 0.14 0.15 0.16 0.18 0.20 0.22 0.22 0.22 0.24 0.27 0.30 0.36 0.38 0.42 0.55
0.27 0.35 0.20 0.08 0.06 0.08 0.16 0.16 0.07 0.05 0.04 0.04 0.05 0.07 0.08 0.13 0.11 0.05 0.07 0.07 0.09 0.10 0.10 0.11 0.12 0.14 0.13 0.13 0.14 0.18 0.19 0.18 0.17 0.18 0.21 0.26 0.29 0.29 0.28 0.27 0.29 0.33 0.37 0.42
0.23 0.29 0.22 0.08 0.08 0.13 0.13 0.08 0.06 0.06 0.05 0.04 0.05 0.05 0.05 0.08 0.09 0.05 0.06 0.07 0.10 0.11 0.12 0.14 0.15 0.15 0.16 0.14 0.16 0.20 0.20 0.19 0.19 0.19 0.22 0.26 0.34 0.34 0.31 0.29 0.27 0.28 0.33 0.40
0.24 0.22 0.14 0.10 0.10 0.12 0.12 0.10 0.08 0.08 0.07 0.05 0.04 0.04 0.04 0.06 0.11 0.07 0.06 0.06 0.09 0.12 0.14 0.14 0.16 0.18 0.18 0.19 0.20 0.21 0.21 0.21 0.22 0.23 0.24 0.26 0.29 0.31 0.32 0.30 0.31 0.32 0.34 0.38
0.17 0.13 0.10 0.11 0.11 0.10 0.09 0.09 0.09 0.10 0.11 0.08 0.08 0.07 0.06 0.07 0.11 0.10 0.08 0.07 0.07 0.09 0.12 0.17 0.19 0.20 0.21 0.24 0.25 0.25 0.24 0.24 0.23 0.25 0.27 0.28 0.31 0.33 0.35 0.37 0.37 0.37 0.37 0.41
0.14 0.10 0.08 0.09 0.11 0.12 0.10 0.09 0.10 0.10 0.12 0.12 0.12 0.12 0.10 0.09 0.09 0.09 0.12 0.11 0.09 0.09 0.11 0.14 0.19 0.21 0.24 0.24 0.27 0.28 0.27 0.27 0.27 0.27 0.29 0.32 0.35 0.37 0.37 0.37 0.40 0.38 0.39 0.43
0.14 0.10 0.10 0.09 0.10 0.12 0.13 0.11 0.10 0.10 0.10 0.11 0.12 0.12 0.11 0.11 0.10 0.10 0.10 0.11 0.11 0.12 0.11 0.12 0.14 0.15 0.19 0.20 0.22 0.26 0.30 0.29 0.27 0.29 0.33 0.33 0.35 0.35 0.37 0.38 0.40 0.38 0.37 0.40
0.08 0.08 0.07 0.08 0.08 0.09 0.12 0.12 0.09 0.09 0.10 0.12 0.13 0.13 0.12 0.13 0.13 0.12 0.11 0.10 0.12 0.13 0.12 0.12 0.11 0.12 0.14 0.16 0.20 0.24 0.25 0.25 0.25 0.26 0.27 0.30 0.33 0.34 0.37 0.38 0.38 0.37 0.36 0.38
0.06 0.06 0.08 0.08 0.08 0.08 0.09 0.10 0.08 0.08 0.10 0.11 0.13 0.15 0.16 0.16 0.16 0.15 0.14 0.12 0.14 0.13 0.14 0.12 0.12 0.13 0.14 0.16 0.19 0.23 0.26 0.31 0.29 0.26 0.27 0.28 0.28 0.31 0.35 0.39 0.40 0.38 0.37 0.37
0.05 0.05 0.07 0.07 0.07 0.07 0.07 0.09 0.10 0.09 0.11 0.11 0.12 0.15 0.18 0.16 0.16 0.16 0.16 0.14 0.12 0.12 0.14 0.15 0.15 0.15 0.15 0.14 0.17 0.20 0.24 0.30 0.34 0.33 0.30 0.32 0.32 0.29 0.29 0.32 0.36 0.37 0.39 0.38
0.09 0.06 0.06 0.05 0.05 0.06 0.07 0.10 0.12 0.13 0.12 0.13 0.13 0.15 0.17 0.17 0.17 0.18 0.20 0.17 0.15 0.14 0.14 0.15 0.16 0.17 0.18 0.18 0.19 0.20 0.23 0.30 0.34 0.37 0.36 0.34 0.34 0.32 0.30 0.28 0.29 0.32 0.34 0.37
0.14 0.11 0.09 0.09 0.08 0.07 0.07 0.09 0.12 0.14 0.14 0.14 0.16 0.16 0.17 0.17 0.17 0.17 0.19 0.18 0.16 0.15 0.15 0.15 0.15 0.17 0.19 0.18 0.18 0.18 0.21 0.26 0.33 0.37 0.35 0.32 0.33 0.33 0.32 0.32 0.30 0.32 0.34 0.39
0.14 0.14 0.13 0.12 0.10 0.08 0.07 0.07 0.09 0.13 0.15 0.14 0.14 0.14 0.15 0.17 0.17 0.17 0.17 0.18 0.18 0.16 0.15 0.15 0.16 0.17 0.18 0.17 0.17 0.19 0.21 0.24 0.28 0.33 0.37 0.37 0.34 0.33 0.33 0.32 0.31 0.32 0.34 0.36
0.13 0.13 0.12 0.11 0.10 0.09 0.09 0.09 0.09 0.09 0.11 0.12 0.13 0.12 0.12 0.15 0.16 0.14 0.15 0.15 0.16 0.15 0.14 0.15 0.19 0.19 0.18 0.19 0.21 0.21 0.25 0.27 0.30 0.33 0.35 0.41 0.41 0.36 0.37 0.37 0.36 0.37 0.38 0.37
0.09 0.08 0.09 0.08 0.09 0.10 0.10 0.09 0.08 0.09 0.10 0.10 0.10 0.11 0.11 0.13 0.15 0.15 0.14 0.13 0.15 0.17 0.16 0.16 0.15 0.14 0.15 0.18 0.23 0.25 0.30 0.31 0.31 0.32 0.33 0.36 0.38 0.40 0.42 0.42 0.41 0.41 0.40 0.40
0.11 0.09 0.09 0.08 0.08 0.08 0.10 0.10 0.07 0.07 0.07 0.09 0.10 0.10 0.11 0.12 0.15 0.18 0.18 0.17 0.18 0.18 0.17 0.19 0.16 0.16 0.17 0.21 0.23 0.23 0.28 0.31 0.32 0.33 0.34 0.37 0.39 0.42 0.46 0.49 0.48 0.47 0.48 0.49
0.11 0.11 0.09 0.09 0.08 0.07 0.07 0.08 0.08 0.07 0.06 0.07 0.09 0.09 0.10 0.11 0.13 0.15 0.18 0.22 0.24 0.26 0.21 0.19 0.19 0.22 0.26 0.31 0.27 0.26 0.28 0.32 0.36 0.38 0.40 0.43 0.45 0.45 0.48 0.52 0.53 0.52 0.52 0.52
0.12 0.12 0.11 0.10 0.09 0.08 0.06 0.06 0.06 0.06 0.06 0.07 0.08 0.10 0.13 0.14 0.14 0.17 0.21 0.25 0.25 0.28 0.26 0.27 0.30 0.32 0.34 0.32 0.30 0.28 0.29 0.32 0.36 0.38 0.40 0.46 0.49 0.50 0.51 0.53 0.56 0.57 0.58 0.56
0.14 0.14 0.14 0.14 0.13 0.12 0.10 0.09 0.08 0.07 0.07 0.07 0.09 0.10 0.13 0.16 0.18 0.20 0.24 0.28 0.31 0.31 0.26 0.28 0.34 0.38 0.39 0.34 0.30 0.29 0.30 0.33 0.37 0.39 0.41 0.44 0.46 0.47 0.50 0.54 0.61 0.64 0.67 0.69
0.16 0.18 0.19 0.19 0.20 0.20 0.18 0.15 0.13 0.12 0.12 0.11 0.11 0.12 0.14 0.15 0.19 0.22 0.25 0.27 0.30 0.30 0.27 0.29 0.33 0.36 0.32 0.31 0.32 0.31 0.30 0.32 0.37 0.39 0.40 0.43 0.45 0.48 0.51 0.54 0.61 0.69 0.73 0.76
0.17 0.18 0.22 0.23 0.22 0.22 0.20 0.20 0.19 0.19 0.18 0.17 0.15 0.14 0.14 0.13 0.14 0.17 0.21 0.24 0.28 0.31 0.29 0.28 0.28 0.30 0.28 0.29 0.31 0.33 0.32 0.32 0.33 0.34 0.36 0.42 0.43 0.45 0.48 0.52 0.56 0.63 0.70 0.73
0.22 0.21 0.22 0.25 0.27 0.25 0.23 0.25 0.27 0.27 0.26 0.25 0.23 0.20 0.19 0.18 0.18 0.18 0.19 0.21 0.23 0.28 0.30 0.31 0.31 0.30 0.31 0.31 0.31 0.34 0.37 0.38 0.39 0.40 0.41 0.43 0.46 0.50 0.53 0.55 0.57 0.62 0.65 0.67

GEFSNGP_prec_meanprecacc_282.txt.gz
Total_Precipitation_Accumulation
0.16 0.18 0.25 0.45 0.51 0.43 0.44 0.44 0.51 0.47 0.51 0.60 0.66 0.69 0.71 0.72 0.64 0.54 0.49 0.45 0.40 0.37 0.39 0.41 0.46 0.54 0.65 0.94 1.15 1.17 1.15 1.02 0.92 0.84 0.77 0.72 0.70 0.72 0.66 0.60 0.59 0.59 0.68 0.76
0.14 0.14 0.16 0.18 0.15 0.15 0.18 0.24 0.31 0.37 0.49 0.53 0.56 0.57 0.62 0.62 0.47 0.42 0.37 0.36 0.36 0.33 0.30 0.27 0.29 0.37 0.45 0.63 0.81 0.90 0.94 0.90 0.77 0.75 0.68 0.61 0.64 0.72 0.72 0.61 0.55 0.55 0.59 0.57
0.20 0.15 0.17 0.14 0.09 0.16 0.19 0.22 0.27 0.40 0.53 0.56 0.58 0.66 0.96 0.97 0.64 0.47 0.43 0.37 0.39 0.38 0.35 0.32 0.31 0.32 0.33 0.39 0.51 0.58 0.63 0.65 0.56 0.55 0.66 0.69 0.71 0.70 0.62 0.53 0.54 0.53 0.48 0.43
0.27 0.25 0.29 0.15 0.09 0.15 0.18 0.19 0.20 0.25 0.28 0.33 0.45 0.58 0.74 0.82 0.68 0.50 0.47 0.40 0.36 0.34 0.32 0.30 0.29 0.30 0.31 0.32 0.36 0.37 0.36 0.35 0.33 0.41 0.55 0.58 0.55 0.53 0.47 0.47 0.50 0.55 0.47 0.43
0.32 0.40 0.32 0.13 0.09 0.11 0.13 0.13 0.11 0.14 0.14 0.16 0.20 0.21 0.22 0.26 0.29 0.27 0.24 0.21 0.18 0.17 0.17 0.16 0.18 0.20 0.19 0.17 0.20 0.20 0.19 0.19 0.23 0.26 0.29 0.29 0.27 0.29 0.36 0.42 0.46 0.41 0.45 0.59
0.36 0.41 0.31 0.14 0.08 0.07 0.11 0.18 0.10 0.10 0.09 0.08 0.11 0.16 0.14 0.20 0.14 0.08 0.08 0.08 0.10 0.12 0.12 0.12 0.14 0.17 0.16 0.17 0.17 0.18 0.18 0.19 0.20 0.22 0.24 0.23 0.23 0.25 0.29 0.32 0.37 0.39 0.43 0.57
0.30 0.38 0.23 0.10 0.07 0.09 0.17 0.18 0.08 0.06 0.05 0.05 0.06 0.07 0.08 0.14 0.11 0.05 0.07 0.08 0.10 0.11 0.11 0.12 0.13 0.15 0.14 0.14 0.17 0.22 0.23 0.21 0.19 0.19 0.22 0.27 0.30 0.30 0.29 0.28 0.30 0.34 0.38 0.43
0.26 0.32 0.25 0.10 0.10 0.14 0.14 0.08 0.07 0.06 0.06 0.05 0.05 0.05 0.05 0.08 0.10 0.05 0.06 0.08 0.11 0.12 0.13 0.15 0.15 0.16 0.16 0.15 0.18 0.24 0.24 0.22 0.20 0.21 0.23 0.27 0.34 0.35 0.32 0.30 0.28 0.29 0.34 0.41
0.26 0.24 0.16 0.12 0.13 0.14 0.13 0.10 0.08 0.08 0.07 0.05 0.05 0.04 0.04 0.07 0.12 0.08 0.06 0.07 0.10 0.13 0.15 0.15 0.16 0.18 0.19 0.20 0.21 0.23 0.25 0.24 0.24 0.24 0.25 0.27 0.30 0.32 0.33 0.31 0.32 0.33 0.34 0.39
0.18 0.14 0.11 0.13 0.14 0.12 0.10 0.10 0.10 0.10 0.11 0.09 0.08 0.07 0.07 0.07 0.11 0.10 0.09 0.07 0.08 0.10 0.13 0.18 0.20 0.21 0.23 0.25 0.27 0.27 0.27 0.27 0.26 0.27 0.29 0.30 0.33 0.35 0.37 0.38 0.38 0.37 0.38 0.42
0.15 0.11 0.09 0.10 0.12 0.14 0.11 0.10 0.10 0.11 0.12 0.12 0.13 0.13 0.11 0.10 0.10 0.10 0.12 0.12 0.10 0.10 0.12 0.16 0.20 0.22 0.25 0.26 0.29 0.30 0.30 0.30 0.30 0.29 0.30 0.34 0.37 0.39 0.38 0.38 0.41 0.39 0.40 0.44
0.14 0.10 0.10 0.10 0.10 0.13 0.15 0.13 0.11 0.10 0.11 0.12 0.12 0.13 0.12 0.12 0.11 0.11 0.11 0.11 0.12 0.12 0.12 0.12 0.15 0.16 0.19 0.21 0.23 0.26 0.31 0.30 0.29 0.32 0.35 0.35 0.36 0.36 0.38 0.39 0.41 0.39 0.38 0.41
0.08 0.08 0.08 0.08 0.09 0.10 0.13 0.13 0.10 0.09 0.11 0.12 0.13 0.13 0.13 0.13 0.14 0.13 0.12 0.10 0.12 0.13 0.13 0.12 0.11 0.13 0.15 0.17 0.21 0.24 0.26 0.27 0.27 0.29 0.30 0.33 0.35 0.36 0.38 0.38 0.39 0.37 0.37 0.39
0.06 0.07 0.08 0.08 0.08 0.08 0.10 0.11 0.09 0.09 0.10 0.12 0.14 0.15 0.17 0.17 0.16 0.16 0.15 0.13 0.14 0.13 0.14 0.13 0.12 0.13 0.15 0.16 0.20 0.23 0.26 0.33 0.31 0.29 0.30 0.31 0.31 0.33 0.37 0.40 0.41 0.38 0.38 0.38
0.05 0.05 0.07 0.07 0.07 0.07 0.07 0.09 0.10 0.10 0.11 0.12 0.13 0.16 0.19 0.18 0.17 0.17 0.17 0.15 0.13 0.13 0.15 0.16 0.16 0.16 0.16 0.15 0.17 0.21 0.25 0.31 0.35 0.35 0.33 0.35 0.35 0.31 0.32 0.34 0.37 0.38 0.39 0.38
0.09 0.06 0.06 0.06 0.06 0.07 0.07 0.10 0.12 0.13 0.13 0.14 0.14 0.16 0.19 0.19 0.19 0.20 0.21 0.19 0.16 0.14 0.14 0.16 0.17 0.18 0.19 0.18 0.19 0.21 0.24 0.31 0.36 0.40 0.39 0.37 0.37 0.35 0.32 0.31 0.31 0.33 0.35 0.38
0.14 0.12 0.10 0.09 0.08 0.08 0.07 0.09 0.12 0.15 0.16 0.16 0.18 0.18 0.19 0.19 0.19 0.20 0.21 0.21 0.20 0.16 0.16 0.15 0.16 0.18 0.20 0.19 0.18 0.18 0.22 0.27 0.35 0.40 0.38 0.36 0.36 0.36 0.35 0.33 0.32 0.33 0.35 0.40
0.15 0.15 0.13 0.12 0.11 0.09 0.07 0.08 0.10 0.13 0.16 0.16 0.16 0.16 0.17 0.19 0.20 0.20 0.20 0.21 0.21 0.18 0.16 0.16 0.16 0.17 0.18 0.18 0.18 0.20 0.23 0.25 0.30 0.35 0.40 0.41 0.38 0.35 0.34 0.33 0.32 0.33 0.35 0.37
0.13 0.13 0.12 0.11 0.11 0.10 0.09 0.09 0.09 0.10 0.11 0.13 0.14 0.14 0.14 0.17 0.18 0.18 0.18 0.18 0.18 0.17 0.16 0.15 0.19 0.19 0.18 0.20 0.22 0.23 0.27 0.29 0.31 0.34 0.37 0.44 0.45 0.40 0.39 0.38 0.38 0.38 0.39 0.38
0.09 0.09 0.09 0.09 0.10 0.10 0.10 0.09 0.09 0.09 0.11 0.11 0.11 0.12 0.12 0.13 0.15 0.17 0.16 0.16 0.17 0.19 0.17 0.17 0.15 0.15 0.15 0.18 0.24 0.27 0.32 0.33 0.33 0.33 0.35 0.37 0.40 0.43 0.46 0.44 0.42 0.42 0.41 0.41
0.11 0.09 0.09 0.09 0.08 0.09 0.10 0.10 0.09 0.07 0.08 0.09 0.10 0.10 0.11 0.12 0.15 0.18 0.18 0.18 0.19 0.19 0.18 0.20 0.17 0.16 0.18 0.22 0.25 0.25 0.30 0.33 0.34 0.35 0.36 0.38 0.41 0.45 0.49 0.53 0.51 0.48 0.49 0.49
0.11 0.11 0.09 0.09 0.08 0.07 0.07 0.08 0.08 0.07 0.06 0.07 0.09 0.09 0.10 0.11 0.13 0.15 0.18 0.22 0.25 0.26 0.22 0.20 0.19 0.23 0.27 0.32 0.28 0.27 0.29 0.33 0.37 0.39 0.41 0.44 0.47 0.48 0.51 0.55 0.56 0.55 0.54 0.53
0.13 0.12 0.11 0.10 0.09 0.08 0.06 0.06 0.06 0.06 0.06 0.07 0.08 0.10 0.13 0.14 0.14 0.17 0.21 0.25 0.25 0.28 0.26 0.27 0.31 0.34 0.36 0.33 0.30 0.29 0.30 0.33 0.37 0.38 0.41 0.47 0.50 0.52 0.53 0.56 0.59 0.61 0.61 0.59
0.14 0.14 0.14 0.14 0.13 0.12 0.10 0.09 0.08 0.07 0.07 0.07 0.09 0.10 0.13 0.16 0.18 0.21 0.24 0.29 0.31 0.31 0.27 0.29 0.35 0.39 0.40 0.34 0.31 0.30 0.31 0.34 0.38 0.40 0.42 0.45 0.47 0.49 0.53 0.56 0.63 0.67 0.70 0.72
0.17 0.18 0.19 0.19 0.20 0.20 0.18 0.15 0.13 0.12 0.12 0.11 0.11 0.12 0.14 0.15 0.19 0.23 0.25 0.27 0.31 0.31 0.27 0.29 0.34 0.37 0.33 0.31 0.32 0.32 0.31 0.33 0.38 0.40 0.41 0.45 0.47 0.49 0.53 0.56 0.63 0.72 0.76 0.79
0.17 0.18 0.22 0.23 0.22 0.22 0.20 0.20 0.20 0.19 0.18 0.17 0.15 0.14 0.14 0.14 0.15 0.18 0.21 0.24 0.29 0.32 0.29 0.28 0.29 0.30 0.29 0.30 0.31 0.33 0.33 0.33 0.34 0.35 0.37 0.43 0.45 0.46 0.50 0.53 0.58 0.66 0.73 0.75
0.22 0.21 0.22 0.25 0.27 0.26 0.24 0.25 0.28 0.27 0.27 0.25 0.23 0.21 0.19 0.18 0.18 0.18 0.19 0.21 0.24 0.29 0.31 0.32 0.31 0.31 0.31 0.31 0.32 0.34 0.37 0.39 0.40 0.41 0.42 0.44 0.48 0.51 0.55 0.57 0.59 0.64 0.68 0.69

GEFSNGP_prec_meanprecacc_288.txt.gz
Total_Precipitation_Accumulation
0.16 0.18 0.25 0.46 0.51 0.44 0.45 0.46 0.53 0.48 0.53 0.61 0.67 0.70 0.71 0.74 0.66 0.58 0.54 0.48 0.41 0.38 0.40 0.41 0.46 0.55 0.67 0.96 1.16 1.18 1.16 1.03 0.93 0.85 0.79 0.73 0.71 0.72 0.67 0.61 0.60 0.60 0.70 0.78
0.15 0.14 0.16 0.19 0.15 0.15 0.19 0.25 0.32 0.38 0.50 0.54 0.57 0.57 0.63 0.63 0.49 0.46 0.43 0.38 0.37 0.34 0.31 0.28 0.29 0.37 0.47 0.65 0.82 0.91 0.95 0.91 0.78 0.76 0.69 0.61 0.65 0.73 0.73 0.62 0.56 0.56 0.60 0.58
0.21 0.16 0.17 0.15 0.10 0.16 0.20 0.22 0.28 0.42 0.54 0.57 0.60 0.67 0.97 0.98 0.67 0.51 0.48 0.41 0.41 0.40 0.36 0.34 0.32 0.33 0.36 0.42 0.52 0.59 0.64 0.66 0.57 0.56 0.66 0.69 0.71 0.71 0.63 0.54 0.55 0.54 0.49 0.44
0.28 0.26 0.30 0.16 0.10 0.16 0.19 0.21 0.22 0.26 0.29 0.34 0.46 0.59 0.75 0.83 0.70 0.56 0.52 0.44 0.40 0.37 0.34 0.32 0.31 0.31 0.34 0.35 0.37 0.38 0.37 0.36 0.34 0.42 0.55 0.58 0.56 0.53 0.49 0.48 0.52 0.56 0.48 0.44
0.34 0.43 0.33 0.13 0.10 0.12 0.13 0.14 0.12 0.16 0.16 0.18 0.22 0.22 0.23 0.28 0.31 0.30 0.26 0.24 0.22 0.21 0.20 0.20 0.21 0.22 0.22 0.20 0.21 0.21 0.20 0.20 0.24 0.27 0.30 0.30 0.28 0.31 0.38 0.44 0.48 0.44 0.47 0.60
0.39 0.43 0.33 0.16 0.09 0.08 0.12 0.20 0.12 0.12 0.11 0.10 0.13 0.18 0.15 0.20 0.14 0.09 0.08 0.09 0.11 0.14 0.15 0.16 0.18 0.20 0.19 0.19 0.19 0.19 0.20 0.21 0.23 0.23 0.25 0.25 0.25 0.27 0.31 0.36 0.41 0.42 0.46 0.59
0.31 0.40 0.24 0.11 0.10 0.10 0.19 0.19 0.09 0.07 0.05 0.05 0.06 0.08 0.09 0.14 0.12 0.05 0.07 0.09 0.11 0.12 0.13 0.14 0.15 0.17 0.16 0.16 0.19 0.24 0.26 0.24 0.22 0.21 0.24 0.30 0.33 0.33 0.33 0.32 0.35 0.39 0.43 0.46
0.27 0.33 0.26 0.11 0.12 0.17 0.17 0.10 0.08 0.07 0.06 0.05 0.05 0.05 0.05 0.08 0.10 0.05 0.06 0.08 0.11 0.13 0.14 0.16 0.17 0.17 0.18 0.16 0.19 0.25 0.26 0.24 0.24 0.24 0.25 0.29 0.37 0.38 0.36 0.35 0.33 0.33 0.37 0.43
0.27 0.26 0.17 0.13 0.14 0.16 0.16 0.13 0.10 0.10 0.08 0.05 0.05 0.05 0.05 0.07 0.12 0.08 0.06 0.07 0.10 0.13 0.16 0.17 0.18 0.20 0.21 0.21 0.22 0.24 0.25 0.26 0.26 0.27 0.27 0.29 0.32 0.34 0.36 0.36 0.36 0.36 0.36 0.40
0.19 0.14 0.11 0.13 0.15 0.13 0.12 0.12 0.12 0.12 0.12 0.10 0.09 0.08 0.07 0.08 0.11 0.11 0.09 0.07 0.09 0.11 0.14 0.19 0.22 0.23 0.25 0.27 0.28 0.28 0.28 0.29 0.28 0.30 0.31 0.32 0.35 0.37 0.40 0.41 0.41 0.40 0.40 0.44
0.16 0.11 0.09 0.10 0.13 0.15 0.12 0.11 0.12 0.12 0.13 0.13 0.13 0.13 0.11 0.10 0.10 0.10 0.13 0.12 0.11 0.11 0.14 0.18 0.23 0.25 0.29 0.29 0.32 0.32 0.32 0.32 0.32 0.31 0.32 0.35 0.38 0.41 0.41 0.41 0.44 0.42 0.43 0.46
0.15 0.11 0.11 0.10 0.11 0.13 0.15 0.13 0.12 0.11 0.12 0.13 0.13 0.13 0.12 0.12 0.12 0.12 0.12 0.12 0.13 0.13 0.13 0.14 0.16 0.18 0.23 0.24 0.26 0.29 0.33 0.32 0.30 0.33 0.36 0.36 0.37 0.37 0.40 0.41 0.44 0.42 0.41 0.43
0.09 0.08 0.08 0.08 0.09 0.10 0.14 0.14 0.11 0.10 0.11 0.13 0.14 0.14 0.14 0.14 0.14 0.14 0.13 0.12 0.15 0.15 0.14 0.13 0.13 0.14 0.17 0.20 0.23 0.27 0.28 0.28 0.29 0.30 0.32 0.34 0.37 0.37 0.40 0.40 0.40 0.39 0.39 0.41
0.06 0.07 0.08 0.08 0.09 0.09 0.10 0.11 0.09 0.09 0.11 0.12 0.14 0.16 0.17 0.18 0.18 0.17 0.16 0.15 0.17 0.16 0.16 0.14 0.14 0.15 0.17 0.18 0.22 0.25 0.27 0.34 0.33 0.30 0.32 0.33 0.34 0.36 0.40 0.43 0.45 0.41 0.40 0.40
0.05 0.05 0.07 0.07 0.08 0.08 0.08 0.10 0.10 0.10 0.12 0.12 0.13 0.16 0.20 0.19 0.19 0.19 0.19 0.17 0.16 0.16 0.20 0.20 0.19 0.18 0.17 0.17 0.19 0.22 0.26 0.31 0.36 0.36 0.34 0.36 0.37 0.34 0.35 0.38 0.41 0.42 0.42 0.41
0.09 0.06 0.06 0.06 0.07 0.07 0.08 0.11 0.12 0.13 0.13 0.14 0.14 0.17 0.19 0.19 0.21 0.22 0.24 0.22 0.20 0.20 0.20 0.21 0.22 0.22 0.21 0.20 0.21 0.21 0.25 0.33 0.38 0.41 0.40 0.38 0.39 0.37 0.35 0.34 0.34 0.36 0.38 0.40
0.15 0.12 0.10 0.10 0.09 0.08 0.08 0.10 0.13 0.16 0.16 0.17 0.19 0.19 0.20 0.20 0.21 0.22 0.24 0.24 0.24 0.21 0.21 0.20 0.21 0.22 0.22 0.21 0.20 0.20 0.23 0.29 0.36 0.42 0.40 0.38 0.38 0.38 0.37 0.36 0.35 0.36 0.38 0.43
0.15 0.15 0.13 0.12 0.11 0.09 0.08 0.08 0.10 0.14 0.16 0.16 0.17 0.17 0.18 0.20 0.20 0.21 0.22 0.23 0.25 0.23 0.20 0.19 0.19 0.19 0.20 0.20 0.20 0.22 0.24 0.27 0.32 0.37 0.42 0.44 0.40 0.37 0.37 0.36 0.35 0.36 0.38 0.41
0.13 0.13 0.12 0.11 0.11 0.10 0.09 0.09 0.09 0.10 0.12 0.13 0.14 0.14 0.14 0.17 0.18 0.18 0.19 0.20 0.22 0.21 0.19 0.18 0.21 0.21 0.20 0.21 0.24 0.25 0.29 0.31 0.33 0.36 0.39 0.46 0.47 0.42 0.41 0.41 0.40 0.40 0.41 0.41
0.09 0.09 0.09 0.09 0.10 0.10 0.10 0.09 0.10 0.10 0.11 0.11 0.12 0.12 0.12 0.13 0.16 0.17 0.17 0.17 0.20 0.22 0.20 0.19 0.17 0.16 0.17 0.20 0.27 0.29 0.34 0.35 0.35 0.35 0.36 0.39 0.42 0.45 0.48 0.47 0.45 0.45 0.44 0.44
0.11 0.10 0.09 0.09 0.08 0.09 0.10 0.10 0.09 0.07 0.08 0.09 0.10 0.11 0.11 0.12 0.15 0.18 0.18 0.18 0.20 0.20 0.19 0.21 0.18 0.17 0.19 0.24 0.27 0.27 0.32 0.35 0.36 0.37 0.38 0.40 0.43 0.46 0.50 0.55 0.53 0.51 0.51 0.52
0.12 0.11 0.10 0.09 0.08 0.08 0.07 0.08 0.08 0.07 0.06 0.07 0.09 0.09 0.10 0.11 0.13 0.15 0.19 0.23 0.25 0.26 0.22 0.20 0.20 0.24 0.29 0.34 0.30 0.28 0.31 0.35 0.39 0.40 0.43 0.46 0.48 0.49 0.52 0.56 0.58 0.57 0.56 0.55
0.13 0.12 0.11 0.10 0.10 0.08 0.06 0.06 0.06 0.06 0.06 0.07 0.08 0.10 0.13 0.14 0.14 0.17 0.21 0.25 0.25 0.28 0.26 0.27 0.32 0.34 0.37 0.34 0.31 0.30 0.31 0.34 0.38 0.40 0.42 0.48 0.51 0.53 0.54 0.57 0.60 0.62 0.63 0.61
0.15 0.14 0.14 0.14 0.14 0.12 0.10 0.09 0.08 0.07 0.07 0.07 0.09 0.10 0.13 0.16 0.18 0.21 0.24 0.29 0.32 0.32 0.27 0.29 0.35 0.40 0.41 0.35 0.32 0.30 0.32 0.35 0.39 0.41 0.43 0.46 0.48 0.50 0.53 0.57 0.64 0.68 0.71 0.74
0.17 0.18 0.20 0.20 0.20 0.20 0.18 0.15 0.13 0.12 0.12 0.11 0.11 0.12 0.14 0.16 0.19 0.23 0.25 0.27 0.31 0.31 0.27 0.29 0.34 0.37 0.33 0.32 0.33 0.33 0.32 0.34 0.39 0.41 0.42 0.45 0.47 0.50 0.53 0.56 0.64 0.72 0.77 0.80
0.18 0.19 0.22 0.23 0.23 0.22 0.20 0.20 0.20 0.19 0.19 0.17 0.15 0.14 0.14 0.14 0.15 0.18 0.21 0.24 0.29 0.32 0.30 0.29 0.29 0.31 0.29 0.30 0.32 0.34 0.34 0.34 0.35 0.36 0.38 0.43 0.45 0.47 0.51 0.54 0.59 0.66 0.73 0.76
0.23 0.22 0.22 0.26 0.27 0.26 0.24 0.25 0.28 0.28 0.27 0.26 0.24 0.21 0.19 0.18 0.18 0.18 0.19 0.21 0.24 0.29 0.31 0.32 0.32 0.31 0.32 0.32 0.32 0.35 0.38 0.40 0.40 0.41 0.43 0.45 0.48 0.52 0.56 0.58 0.61 0.65 0.69 0.70

GEFSNGP_prec_meanprecacc_294.txt.gz
Total_Precipitation_Accumulation
0.17 0.18 0.25 0.46 0.52 0.44 0.47 0.48 0.55 0.50 0.53 0.62 0.68 0.71 0.72 0.75 0.68 0.61 0.58 0.53 0.48 0.44 0.43 0.44 0.49 0.57 0.69 0.99 1.22 1.21 1.18 1.04 0.93 0.86 0.80 0.74 0.72 0.74 0.69 0.63 0.61 0.61 0.70 0.79
0.15 0.14 0.16 0.19 0.15 0.16 0.19 0.25 0.33 0.39 0.50 0.55 0.58 0.58 0.64 0.64 0.50 0.49 0.50 0.47 0.45 0.39 0.35 0.32 0.32 0.40 0.50 0.69 0.88 0.95 0.97 0.91 0.79 0.77 0.70 0.62 0.66 0.75 0.75 0.64 0.58 0.57 0.61 0.59
0.21 0.16 0.18 0.16 0.10 0.16 0.21 0.23 0.29 0.43 0.55 0.58 0.61 0.68 0.99 1.00 0.69 0.55 0.54 0.48 0.47 0.44 0.40 0.37 0.35 0.36 0.39 0.46 0.57 0.64 0.66 0.66 0.57 0.57 0.67 0.69 0.72 0.72 0.65 0.56 0.59 0.57 0.51 0.47
0.28 0.27 0.31 0.17 0.10 0.16 0.20 0.22 0.24 0.28 0.31 0.35 0.48 0.61 0.77 0.85 0.72 0.59 0.56 0.48 0.46 0.43 0.37 0.35 0.34 0.34 0.37 0.39 0.42 0.42 0.39 0.37 0.34 0.43 0.57 0.59 0.56 0.54 0.49 0.49 0.54 0.59 0.51 0.47
0.35 0.44 0.34 0.14 0.10 0.13 0.14 0.16 0.14 0.17 0.16 0.18 0.23 0.23 0.24 0.28 0.32 0.33 0.30 0.27 0.27 0.28 0.25 0.23 0.24 0.25 0.25 0.23 0.25 0.24 0.21 0.22 0.26 0.28 0.32 0.32 0.30 0.32 0.38 0.45 0.50 0.46 0.49 0.62
0.40 0.45 0.34 0.16 0.10 0.08 0.13 0.21 0.14 0.13 0.12 0.11 0.13 0.19 0.16 0.21 0.15 0.11 0.11 0.11 0.14 0.20 0.23 0.21 0.21 0.23 0.23 0.22 0.22 0.22 0.22 0.23 0.25 0.25 0.28 0.28 0.28 0.29 0.33 0.38 0.43 0.45 0.49 0.62
0.32 0.42 0.25 0.12 0.11 0.11 0.21 0.21 0.10 0.08 0.06 0.06 0.07 0.09 0.10 0.15 0.12 0.06 0.09 0.11 0.13 0.16 0.20 0.21 0.20 0.21 0.20 0.19 0.22 0.27 0.28 0.26 0.25 0.25 0.27 0.32 0.35 0.35 0.34 0.34 0.37 0.41 0.46 0.50
0.28 0.35 0.27 0.12 0.13 0.18 0.18 0.10 0.09 0.08 0.07 0.06 0.06 0.06 0.06 0.09 0.10 0.06 0.07 0.09 0.13 0.15 0.18 0.21 0.21 0.21 0.21 0.20 0.21 0.27 0.29 0.27 0.27 0.28 0.28 0.32 0.40 0.40 0.38 0.37 0.35 0.35 0.40 0.48
0.29 0.27 0.18 0.14 0.15 0.16 0.16 0.14 0.11 0.10 0.09 0.06 0.06 0.05 0.05 0.07 0.12 0.08 0.06 0.08 0.12 0.15 0.18 0.20 0.22 0.25 0.26 0.25 0.25 0.27 0.28 0.29 0.29 0.30 0.30 0.32 0.35 0.37 0.39 0.38 0.39 0.39 0.40 0.45
0.22 0.16 0.12 0.14 0.15 0.14 0.13 0.13 0.12 0.13 0.13 0.11 0.10 0.09 0.08 0.08 0.12 0.11 0.09 0.08 0.10 0.12 0.16 0.22 0.25 0.26 0.30 0.31 0.32 0.32 0.32 0.33 0.33 0.34 0.34 0.35 0.37 0.40 0.42 0.43 0.44 0.43 0.43 0.48
0.19 0.12 0.10 0.11 0.13 0.15 0.13 0.12 0.13 0.13 0.14 0.14 0.15 0.14 0.12 0.11 0.11 0.11 0.13 0.13 0.12 0.13 0.15 0.20 0.25 0.28 0.33 0.34 0.37 0.36 0.35 0.36 0.37 0.37 0.37 0.39 0.41 0.44 0.45 0.44 0.46 0.44 0.45 0.48
0.17 0.12 0.12 0.11 0.11 0.13 0.16 0.14 0.13 0.12 0.12 0.14 0.14 0.14 0.13 0.13 0.13 0.13 0.14 0.14 0.14 0.14 0.14 0.16 0.18 0.20 0.25 0.28 0.32 0.35 0.38 0.36 0.34 0.37 0.40 0.39 0.40 0.40 0.43 0.45 0.47 0.44 0.42 0.45
0.09 0.09 0.09 0.09 0.10 0.11 0.14 0.14 0.11 0.11 0.12 0.13 0.15 0.15 0.14 0.14 0.15 0.15 0.14 0.14 0.16 0.16 0.15 0.14 0.14 0.16 0.19 0.23 0.28 0.34 0.34 0.33 0.32 0.35 0.36 0.38 0.39 0.39 0.42 0.43 0.44 0.42 0.41 0.42
0.06 0.07 0.08 0.08 0.09 0.09 0.11 0.11 0.10 0.10 0.11 0.12 0.15 0.17 0.18 0.19 0.18 0.18 0.17 0.16 0.18 0.18 0.18 0.16 0.16 0.17 0.18 0.20 0.24 0.28 0.32 0.38 0.36 0.33 0.36 0.38 0.38 0.40 0.43 0.47 0.48 0.45 0.43 0.43
0.05 0.05 0.07 0.07 0.08 0.08 0.08 0.10 0.11 0.11 0.12 0.13 0.13 0.17 0.20 0.19 0.19 0.19 0.20 0.18 0.17 0.17 0.21 0.22 0.22 0.21 0.20 0.19 0.21 0.25 0.28 0.34 0.39 0.39 0.38 0.40 0.41 0.39 0.40 0.43 0.45 0.46 0.47 0.46
0.09 0.06 0.06 0.06 0.07 0.07 0.08 0.11 0.13 0.14 0.14 0.15 0.15 0.17 0.19 0.20 0.21 0.22 0.24 0.22 0.21 0.21 0.21 0.22 0.24 0.24 0.24 0.23 0.24 0.25 0.28 0.36 0.41 0.44 0.44 0.43 0.43 0.41 0.39 0.38 0.38 0.40 0.41 0.44
0.15 0.12 0.10 0.10 0.09 0.08 0.08 0.10 0.13 0.17 0.17 0.17 0.19 0.19 0.20 0.20 0.21 0.22 0.25 0.25 0.24 0.22 0.22 0.21 0.22 0.23 0.24 0.24 0.24 0.24 0.27 0.32 0.40 0.44 0.44 0.42 0.42 0.41 0.40 0.39 0.38 0.40 0.41 0.47
0.15 0.15 0.13 0.12 0.11 0.09 0.08 0.08 0.11 0.15 0.17 0.17 0.17 0.17 0.18 0.20 0.20 0.21 0.22 0.24 0.25 0.23 0.21 0.20 0.20 0.20 0.21 0.22 0.23 0.25 0.28 0.30 0.35 0.40 0.45 0.46 0.43 0.40 0.40 0.39 0.38 0.39 0.41 0.46
0.13 0.14 0.12 0.11 0.11 0.10 0.10 0.09 0.10 0.11 0.13 0.14 0.15 0.14 0.14 0.17 0.18 0.18 0.20 0.21 0.22 0.21 0.20 0.18 0.22 0.22 0.21 0.22 0.25 0.27 0.31 0.33 0.35 0.39 0.42 0.49 0.50 0.45 0.44 0.44 0.44 0.45 0.45 0.45
0.10 0.09 0.09 0.09 0.10 0.11 0.11 0.10 0.11 0.11 0.12 0.12 0.12 0.12 0.12 0.13 0.16 0.18 0.18 0.18 0.21 0.22 0.20 0.19 0.18 0.17 0.17 0.21 0.28 0.31 0.36 0.37 0.37 0.37 0.39 0.41 0.44 0.47 0.50 0.50 0.49 0.49 0.48 0.48
0.11 0.10 0.10 0.09 0.08 0.09 0.10 0.11 0.10 0.09 0.09 0.10 0.10 0.11 0.11 0.12 0.15 0.18 0.18 0.19 0.20 0.20 0.19 0.21 0.18 0.18 0.20 0.25 0.28 0.28 0.34 0.38 0.39 0.40 0.41 0.43 0.46 0.48 0.52 0.57 0.56 0.54 0.55 0.55
0.12 0.11 0.10 0.09 0.08 0.08 0.07 0.08 0.09 0.08 0.07 0.07 0.09 0.09 0.11 0.11 0.13 0.15 0.19 0.23 0.25 0.27 0.22 0.20 0.20 0.24 0.30 0.35 0.31 0.30 0.32 0.36 0.41 0.43 0.45 0.49 0.51 0.51 0.54 0.58 0.59 0.59 0.57 0.57
0.13 0.12 0.11 0.10 0.10 0.09 0.07 0.07 0.07 0.07 0.06 0.07 0.09 0.11 0.14 0.14 0.14 0.17 0.21 0.25 0.26 0.28 0.27 0.27 0.32 0.35 0.37 0.35 0.33 0.33 0.33 0.36 0.40 0.42 0.44 0.50 0.53 0.55 0.56 0.58 0.61 0.63 0.64 0.62
0.15 0.15 0.15 0.15 0.14 0.13 0.11 0.09 0.09 0.08 0.07 0.07 0.09 0.11 0.14 0.17 0.18 0.21 0.24 0.29 0.32 0.32 0.27 0.29 0.36 0.40 0.41 0.36 0.33 0.32 0.34 0.37 0.41 0.43 0.45 0.48 0.50 0.52 0.55 0.59 0.65 0.69 0.72 0.75
0.17 0.18 0.20 0.20 0.21 0.21 0.19 0.16 0.14 0.13 0.12 0.12 0.12 0.13 0.14 0.16 0.19 0.23 0.26 0.28 0.31 0.31 0.27 0.30 0.35 0.38 0.34 0.32 0.34 0.34 0.34 0.37 0.41 0.43 0.44 0.47 0.50 0.52 0.55 0.58 0.65 0.74 0.78 0.81
0.18 0.19 0.22 0.23 0.23 0.22 0.21 0.21 0.21 0.20 0.19 0.18 0.16 0.16 0.15 0.14 0.15 0.18 0.22 0.25 0.29 0.32 0.30 0.29 0.29 0.31 0.30 0.31 0.32 0.35 0.36 0.36 0.38 0.39 0.41 0.46 0.48 0.49 0.52 0.56 0.60 0.68 0.75 0.78
0.24 0.22 0.23 0.26 0.27 0.26 0.24 0.26 0.29 0.29 0.28 0.27 0.26 0.23 0.20 0.19 0.19 0.19 0.19 0.21 0.25 0.29 0.31 0.32 0.32 0.32 0.32 0.32 0.33 0.35 0.39 0.41 0.42 0.44 0.45 0.47 0.51 0.55 0.58 0.60 0.63 0.67 0.71 0.72

GEFSNGP_prec_meanprecacc_300.txt.gz
Total_Precipitation_Accumulation
0.17 0.18 0.25 0.46 0.52 0.45 0.47 0.48 0.56 0.50 0.53 0.62 0.68 0.71 0.73 0.75 0.69 0.62 0.60 0.55 0.50 0.46 0.45 0.46 0.51 0.59 0.72 1.02 1.24 1.23 1.20 1.06 0.95 0.88 0.81 0.75 0.72 0.75 0.71 0.64 0.62 0.62 0.71 0.80
0.15 0.14 0.17 0.19 0.16 0.16 0.19 0.26 0.34 0.39 0.50 0.55 0.58 0.58 0.65 0.65 0.51 0.50 0.52 0.50 0.48 0.42 0.38 0.34 0.35 0.42 0.52 0.72 0.90 0.98 1.00 0.93 0.80 0.78 0.71 0.62 0.66 0.75 0.76 0.65 0.59 0.58 0.62 0.60
0.21 0.17 0.18 0.16 0.10 0.17 0.21 0.24 0.29 0.43 0.56 0.59 0.61 0.68 1.00 1.01 0.70 0.56 0.55 0.49 0.49 0.46 0.42 0.40 0.38 0.39 0.42 0.49 0.61 0.68 0.72 0.70 0.59 0.59 0.68 0.70 0.72 0.72 0.65 0.57 0.59 0.58 0.52 0.48
0.28 0.27 0.32 0.17 0.10 0.16 0.20 0.23 0.24 0.29 0.32 0.36 0.48 0.62 0.78 0.86 0.72 0.59 0.57 0.48 0.47 0.45 0.39 0.37 0.36 0.37 0.41 0.43 0.45 0.48 0.46 0.42 0.37 0.46 0.59 0.62 0.58 0.55 0.50 0.50 0.55 0.60 0.53 0.48
0.35 0.44 0.34 0.14 0.10 0.13 0.15 0.16 0.15 0.19 0.18 0.19 0.23 0.24 0.25 0.29 0.32 0.33 0.31 0.27 0.29 0.32 0.28 0.25 0.26 0.28 0.29 0.27 0.29 0.30 0.28 0.27 0.30 0.32 0.36 0.35 0.32 0.34 0.40 0.46 0.51 0.46 0.50 0.64
0.40 0.45 0.35 0.17 0.10 0.08 0.13 0.22 0.14 0.14 0.13 0.12 0.15 0.20 0.17 0.21 0.16 0.12 0.12 0.14 0.18 0.24 0.27 0.23 0.23 0.27 0.26 0.26 0.27 0.27 0.27 0.27 0.29 0.30 0.33 0.32 0.31 0.32 0.35 0.39 0.43 0.45 0.49 0.63
0.33 0.43 0.26 0.12 0.11 0.11 0.21 0.21 0.11 0.08 0.07 0.07 0.08 0.11 0.11 0.16 0.14 0.11 0.13 0.13 0.15 0.19 0.24 0.25 0.23 0.24 0.24 0.24 0.27 0.32 0.33 0.30 0.29 0.29 0.31 0.35 0.38 0.37 0.35 0.35 0.38 0.42 0.46 0.50
0.29 0.36 0.28 0.12 0.13 0.19 0.18 0.11 0.09 0.08 0.07 0.07 0.07 0.07 0.07 0.10 0.12 0.10 0.11 0.12 0.14 0.16 0.21 0.26 0.26 0.25 0.28 0.27 0.27 0.33 0.33 0.31 0.30 0.32 0.33 0.36 0.43 0.42 0.40 0.39 0.36 0.36 0.41 0.49
0.30 0.28 0.19 0.14 0.15 0.16 0.16 0.14 0.11 0.10 0.09 0.06 0.07 0.07 0.06 0.08 0.13 0.09 0.08 0.12 0.15 0.16 0.20 0.25 0.26 0.30 0.32 0.31 0.31 0.32 0.32 0.32 0.33 0.34 0.35 0.36 0.39 0.40 0.42 0.41 0.41 0.40 0.41 0.46
0.22 0.16 0.12 0.14 0.16 0.14 0.13 0.13 0.12 0.13 0.13 0.11 0.10 0.09 0.09 0.09 0.12 0.11 0.09 0.09 0.12 0.14 0.18 0.25 0.29 0.31 0.36 0.37 0.37 0.37 0.38 0.38 0.37 0.38 0.40 0.40 0.42 0.45 0.48 0.49 0.49 0.47 0.46 0.50
0.19 0.12 0.10 0.11 0.14 0.16 0.14 0.12 0.13 0.13 0.14 0.14 0.15 0.15 0.12 0.11 0.12 0.11 0.13 0.13 0.12 0.13 0.16 0.22 0.28 0.30 0.35 0.38 0.41 0.40 0.39 0.42 0.44 0.44 0.44 0.46 0.47 0.49 0.50 0.48 0.50 0.48 0.49 0.51
0.17 0.12 0.12 0.11 0.11 0.14 0.16 0.15 0.13 0.12 0.12 0.14 0.14 0.14 0.13 0.13 0.13 0.13 0.14 0.14 0.14 0.15 0.15 0.17 0.20 0.23 0.27 0.30 0.36 0.40 0.42 0.40 0.40 0.43 0.46 0.45 0.45 0.45 0.48 0.49 0.50 0.47 0.44 0.47
0.09 0.09 0.09 0.09 0.11 0.12 0.15 0.15 0.12 0.11 0.12 0.13 0.15 0.15 0.14 0.15 0.15 0.15 0.14 0.14 0.17 0.17 0.15 0.15 0.15 0.18 0.21 0.24 0.30 0.37 0.39 0.38 0.36 0.38 0.39 0.41 0.43 0.42 0.45 0.46 0.46 0.44 0.43 0.45
0.06 0.07 0.08 0.08 0.09 0.10 0.12 0.12 0.10 0.11 0.12 0.13 0.15 0.17 0.18 0.19 0.18 0.18 0.17 0.16 0.18 0.18 0.19 0.17 0.17 0.18 0.19 0.22 0.25 0.30 0.35 0.43 0.41 0.37 0.40 0.42 0.41 0.42 0.46 0.49 0.51 0.47 0.45 0.45
0.05 0.05 0.07 0.07 0.08 0.08 0.09 0.11 0.12 0.12 0.13 0.13 0.14 0.17 0.20 0.19 0.19 0.20 0.20 0.19 0.17 0.18 0.21 0.22 0.22 0.21 0.20 0.20 0.23 0.26 0.30 0.37 0.43 0.43 0.42 0.44 0.46 0.43 0.44 0.46 0.48 0.49 0.50 0.49
0.09 0.06 0.06 0.06 0.07 0.08 0.09 0.11 0.14 0.15 0.15 0.16 0.16 0.18 0.20 0.20 0.21 0.23 0.25 0.23 0.21 0.21 0.21 0.23 0.24 0.25 0.25 0.24 0.25 0.26 0.29 0.38 0.44 0.47 0.46 0.45 0.47 0.46 0.45 0.43 0.44 0.45 0.45 0.47
0.15 0.12 0.10 0.10 0.09 0.08 0.08 0.10 0.13 0.17 0.18 0.18 0.20 0.20 0.21 0.21 0.21 0.22 0.25 0.25 0.24 0.22 0.22 0.22 0.22 0.23 0.25 0.24 0.25 0.25 0.28 0.34 0.41 0.46 0.45 0.45 0.45 0.46 0.45 0.45 0.45 0.47 0.47 0.53
0.16 0.15 0.13 0.13 0.11 0.09 0.08 0.09 0.11 0.15 0.17 0.17 0.17 0.18 0.19 0.21 0.21 0.21 0.23 0.24 0.25 0.24 0.21 0.20 0.20 0.20 0.22 0.22 0.23 0.26 0.29 0.32 0.36 0.40 0.46 0.48 0.46 0.44 0.44 0.43 0.42 0.46 0.48 0.53
0.14 0.14 0.13 0.11 0.11 0.10 0.10 0.09 0.10 0.11 0.13 0.14 0.15 0.15 0.15 0.18 0.19 0.19 0.20 0.21 0.22 0.22 0.20 0.19 0.22 0.22 0.21 0.23 0.26 0.27 0.32 0.34 0.36 0.39 0.43 0.50 0.52 0.48 0.47 0.47 0.47 0.47 0.49 0.50
0.10 0.09 0.10 0.09 0.10 0.11 0.11 0.10 0.11 0.11 0.12 0.12 0.13 0.13 0.13 0.14 0.16 0.18 0.18 0.18 0.21 0.22 0.20 0.19 0.18 0.17 0.18 0.21 0.28 0.31 0.37 0.38 0.38 0.38 0.40 0.42 0.46 0.49 0.52 0.53 0.52 0.52 0.51 0.52
0.11 0.10 0.10 0.09 0.09 0.09 0.11 0.11 0.10 0.09 0.09 0.10 0.11 0.11 0.11 0.13 0.16 0.18 0.19 0.19 0.20 0.21 0.20 0.21 0.18 0.18 0.20 0.25 0.28 0.28 0.34 0.39 0.40 0.41 0.42 0.45 0.47 0.49 0.54 0.59 0.58 0.57 0.59 0.59
0.12 0.11 0.10 0.10 0.09 0.08 0.08 0.09 0.09 0.08 0.07 0.08 0.09 0.10 0.11 0.12 0.13 0.15 0.19 0.23 0.25 0.27 0.23 0.20 0.20 0.24 0.30 0.35 0.32 0.30 0.33 0.37 0.42 0.44 0.46 0.50 0.52 0.52 0.54 0.58 0.60 0.60 0.59 0.60
0.13 0.13 0.12 0.11 0.10 0.09 0.07 0.07 0.07 0.07 0.07 0.08 0.09 0.11 0.14 0.15 0.15 0.18 0.22 0.25 0.26 0.29 0.27 0.28 0.32 0.35 0.38 0.35 0.33 0.33 0.34 0.37 0.41 0.42 0.45 0.50 0.54 0.55 0.57 0.59 0.62 0.64 0.65 0.63
0.15 0.15 0.15 0.15 0.14 0.13 0.12 0.10 0.09 0.09 0.08 0.09 0.10 0.12 0.15 0.18 0.20 0.22 0.25 0.30 0.32 0.32 0.28 0.29 0.36 0.41 0.42 0.36 0.33 0.32 0.34 0.38 0.42 0.44 0.46 0.49 0.51 0.53 0.56 0.60 0.66 0.70 0.73 0.75
0.17 0.18 0.20 0.20 0.21 0.21 0.20 0.17 0.15 0.14 0.14 0.14 0.14 0.15 0.16 0.17 0.21 0.24 0.27 0.28 0.32 0.32 0.28 0.30 0.35 0.38 0.34 0.33 0.34 0.34 0.34 0.37 0.42 0.44 0.46 0.49 0.52 0.54 0.57 0.59 0.66 0.75 0.79 0.81
0.19 0.20 0.23 0.24 0.23 0.23 0.22 0.21 0.22 0.22 0.22 0.21 0.19 0.18 0.17 0.16 0.17 0.20 0.23 0.25 0.30 0.33 0.30 0.29 0.29 0.31 0.30 0.31 0.33 0.35 0.36 0.37 0.39 0.40 0.42 0.48 0.50 0.52 0.55 0.57 0.62 0.69 0.76 0.79
0.26 0.23 0.23 0.27 0.28 0.27 0.25 0.27 0.31 0.31 0.32 0.30 0.29 0.25 0.22 0.21 0.20 0.20 0.20 0.22 0.25 0.29 0.32 0.33 0.32 0.32 0.33 0.33 0.33 0.36 0.39 0.42 0.43 0.45 0.46 0.49 0.53 0.58 0.63 0.64 0.66 0.70 0.73 0.74

GEFSNGP_prec_meanprecacc_306.txt.gz
Total_Precipitation_Accumulation
0.17 0.19 0.25 0.46 0.52 0.45 0.47 0.48 0.56 0.50 0.54 0.62 0.69 0.71 0.73 0.76 0.69 0.62 0.60 0.56 0.51 0.46 0.46 0.46 0.52 0.60 0.73 1.03 1.26 1.26 1.23 1.08 0.97 0.91 0.85 0.77 0.74 0.77 0.71 0.64 0.63 0.64 0.74 0.82
0.15 0.15 0.17 0.20 0.16 0.16 0.19 0.26 0.34 0.39 0.51 0.55 0.58 0.59 0.65 0.65 0.52 0.50 0.52 0.50 0.48 0.42 0.38 0.35 0.35 0.43 0.54 0.73 0.93 1.01 1.03 0.96 0.83 0.81 0.75 0.66 0.69 0.78 0.78 0.65 0.60 0.60 0.64 0.63
0.22 0.17 0.19 0.16 0.11 0.17 0.21 0.24 0.30 0.43 0.56 0.59 0.61 0.68 1.00 1.01 0.71 0.56 0.56 0.50 0.50 0.47 0.43 0.41 0.39 0.40 0.43 0.50 0.63 0.73 0.76 0.73 0.62 0.62 0.72 0.73 0.75 0.75 0.67 0.58 0.60 0.59 0.54 0.50
0.29 0.27 0.32 0.17 0.10 0.17 0.20 0.23 0.24 0.29 0.32 0.36 0.49 0.62 0.79 0.86 0.73 0.60 0.57 0.49 0.47 0.45 0.40 0.38 0.37 0.38 0.43 0.45 0.48 0.50 0.50 0.48 0.42 0.49 0.63 0.65 0.61 0.58 0.52 0.51 0.55 0.60 0.53 0.49
0.36 0.45 0.35 0.14 0.10 0.13 0.15 0.16 0.15 0.19 0.18 0.19 0.24 0.24 0.25 0.29 0.32 0.33 0.31 0.28 0.29 0.32 0.29 0.26 0.27 0.29 0.31 0.30 0.33 0.32 0.31 0.32 0.36 0.38 0.41 0.40 0.36 0.37 0.43 0.48 0.51 0.47 0.51 0.64
0.41 0.46 0.35 0.17 0.10 0.08 0.13 0.22 0.14 0.14 0.13 0.12 0.15 0.20 0.17 0.21 0.16 0.12 0.12 0.14 0.20 0.28 0.30 0.25 0.25 0.28 0.28 0.28 0.30 0.30 0.30 0.31 0.33 0.35 0.39 0.37 0.35 0.35 0.38 0.41 0.46 0.47 0.51 0.64
0.34 0.44 0.26 0.12 0.11 0.11 0.21 0.21 0.11 0.09 0.07 0.07 0.08 0.11 0.11 0.16 0.15 0.11 0.13 0.14 0.17 0.22 0.28 0.27 0.26 0.27 0.27 0.27 0.30 0.36 0.37 0.34 0.32 0.32 0.34 0.39 0.41 0.40 0.38 0.38 0.41 0.45 0.49 0.52
0.29 0.36 0.29 0.12 0.13 0.19 0.18 0.11 0.09 0.08 0.07 0.07 0.07 0.07 0.07 0.10 0.13 0.11 0.12 0.13 0.15 0.17 0.25 0.28 0.28 0.29 0.31 0.30 0.30 0.36 0.37 0.35 0.34 0.35 0.35 0.38 0.45 0.45 0.42 0.41 0.38 0.39 0.43 0.50
0.30 0.28 0.19 0.14 0.15 0.16 0.16 0.14 0.11 0.11 0.09 0.07 0.07 0.07 0.07 0.08 0.14 0.09 0.09 0.14 0.17 0.18 0.22 0.27 0.29 0.32 0.35 0.34 0.34 0.35 0.36 0.38 0.39 0.38 0.38 0.38 0.40 0.42 0.44 0.43 0.43 0.42 0.42 0.47
0.22 0.16 0.12 0.14 0.16 0.14 0.13 0.13 0.12 0.13 0.13 0.11 0.10 0.09 0.09 0.09 0.13 0.12 0.10 0.10 0.13 0.15 0.19 0.28 0.32 0.33 0.38 0.39 0.40 0.40 0.42 0.44 0.44 0.45 0.44 0.43 0.44 0.46 0.49 0.51 0.50 0.48 0.47 0.51
0.19 0.12 0.10 0.11 0.14 0.16 0.14 0.12 0.13 0.13 0.14 0.14 0.15 0.15 0.12 0.11 0.12 0.11 0.14 0.13 0.13 0.14 0.17 0.22 0.29 0.32 0.37 0.40 0.44 0.44 0.43 0.46 0.49 0.49 0.49 0.50 0.51 0.52 0.52 0.50 0.52 0.50 0.51 0.54
0.17 0.12 0.12 0.11 0.11 0.14 0.16 0.15 0.13 0.12 0.12 0.14 0.15 0.14 0.13 0.13 0.13 0.13 0.14 0.14 0.14 0.15 0.16 0.17 0.21 0.24 0.29 0.32 0.39 0.43 0.45 0.44 0.44 0.48 0.50 0.49 0.49 0.50 0.52 0.53 0.55 0.52 0.49 0.51
0.09 0.09 0.09 0.09 0.11 0.12 0.15 0.15 0.12 0.11 0.12 0.13 0.15 0.15 0.14 0.15 0.15 0.15 0.15 0.14 0.17 0.17 0.16 0.15 0.16 0.19 0.23 0.26 0.32 0.39 0.42 0.42 0.41 0.43 0.44 0.46 0.48 0.48 0.51 0.51 0.51 0.49 0.48 0.49
0.06 0.07 0.08 0.09 0.09 0.10 0.12 0.13 0.11 0.11 0.12 0.13 0.15 0.17 0.19 0.19 0.19 0.18 0.18 0.16 0.18 0.19 0.19 0.17 0.17 0.18 0.21 0.24 0.28 0.32 0.38 0.47 0.45 0.42 0.44 0.46 0.45 0.46 0.50 0.56 0.57 0.52 0.49 0.48
0.05 0.05 0.07 0.08 0.08 0.08 0.09 0.11 0.12 0.12 0.13 0.13 0.14 0.18 0.21 0.20 0.20 0.20 0.20 0.19 0.17 0.18 0.21 0.22 0.22 0.21 0.21 0.21 0.24 0.27 0.32 0.39 0.46 0.47 0.45 0.48 0.49 0.46 0.47 0.50 0.53 0.55 0.55 0.52
0.09 0.06 0.06 0.06 0.07 0.08 0.09 0.11 0.14 0.15 0.15 0.16 0.16 0.19 0.21 0.21 0.22 0.23 0.25 0.23 0.21 0.21 0.22 0.23 0.24 0.25 0.25 0.24 0.26 0.27 0.30 0.39 0.45 0.48 0.48 0.47 0.49 0.49 0.47 0.46 0.47 0.48 0.49 0.51
0.15 0.12 0.10 0.10 0.09 0.08 0.08 0.10 0.14 0.17 0.18 0.18 0.21 0.21 0.22 0.21 0.22 0.22 0.25 0.25 0.25 0.22 0.22 0.22 0.22 0.24 0.25 0.24 0.25 0.25 0.29 0.35 0.43 0.47 0.46 0.46 0.46 0.46 0.46 0.46 0.47 0.50 0.50 0.56
0.16 0.16 0.14 0.13 0.11 0.09 0.08 0.09 0.11 0.15 0.18 0.17 0.18 0.18 0.20 0.22 0.22 0.22 0.23 0.24 0.25 0.24 0.22 0.21 0.20 0.20 0.22 0.22 0.23 0.26 0.30 0.32 0.36 0.41 0.47 0.49 0.47 0.45 0.45 0.44 0.44 0.48 0.50 0.54
0.14 0.14 0.13 0.11 0.11 0.10 0.10 0.10 0.10 0.12 0.13 0.14 0.15 0.15 0.16 0.18 0.20 0.20 0.21 0.22 0.23 0.22 0.20 0.19 0.22 0.22 0.21 0.23 0.26 0.27 0.32 0.34 0.37 0.40 0.43 0.50 0.53 0.48 0.48 0.48 0.48 0.50 0.51 0.51
0.10 0.10 0.10 0.10 0.10 0.11 0.11 0.10 0.11 0.11 0.12 0.12 0.13 0.13 0.13 0.14 0.17 0.19 0.19 0.18 0.21 0.23 0.20 0.19 0.18 0.17 0.18 0.22 0.28 0.31 0.37 0.39 0.38 0.39 0.40 0.42 0.46 0.50 0.53 0.53 0.52 0.53 0.53 0.53
0.12 0.11 0.10 0.10 0.09 0.09 0.11 0.11 0.10 0.09 0.09 0.10 0.11 0.11 0.12 0.13 0.16 0.19 0.20 0.20 0.20 0.21 0.20 0.21 0.18 0.18 0.20 0.25 0.28 0.29 0.35 0.39 0.40 0.41 0.42 0.45 0.48 0.50 0.54 0.59 0.59 0.58 0.60 0.60
0.12 0.11 0.10 0.10 0.09 0.08 0.08 0.09 0.09 0.08 0.07 0.08 0.09 0.10 0.12 0.13 0.14 0.17 0.20 0.24 0.26 0.27 0.23 0.20 0.20 0.25 0.30 0.36 0.32 0.31 0.33 0.37 0.42 0.44 0.46 0.50 0.52 0.52 0.55 0.59 0.61 0.61 0.61 0.61
0.13 0.13 0.12 0.11 0.10 0.09 0.07 0.07 0.07 0.07 0.07 0.08 0.10 0.12 0.16 0.16 0.16 0.19 0.23 0.26 0.26 0.29 0.27 0.28 0.32 0.35 0.38 0.36 0.34 0.33 0.34 0.37 0.41 0.43 0.45 0.51 0.54 0.56 0.57 0.59 0.63 0.65 0.66 0.64
0.15 0.15 0.15 0.15 0.14 0.13 0.12 0.10 0.10 0.09 0.09 0.09 0.10 0.13 0.16 0.20 0.21 0.23 0.26 0.30 0.33 0.33 0.28 0.30 0.36 0.41 0.43 0.37 0.34 0.33 0.35 0.38 0.42 0.44 0.46 0.49 0.52 0.53 0.56 0.60 0.66 0.70 0.73 0.76
0.18 0.19 0.20 0.21 0.21 0.21 0.20 0.17 0.15 0.15 0.15 0.15 0.15 0.16 0.17 0.19 0.22 0.26 0.28 0.29 0.32 0.33 0.29 0.31 0.36 0.39 0.35 0.33 0.34 0.35 0.34 0.38 0.43 0.45 0.46 0.50 0.52 0.55 0.57 0.60 0.67 0.76 0.80 0.82
0.19 0.20 0.23 0.24 0.24 0.23 0.22 0.22 0.22 0.23 0.23 0.23 0.21 0.20 0.20 0.19 0.19 0.22 0.25 0.27 0.31 0.34 0.31 0.30 0.30 0.32 0.30 0.31 0.33 0.36 0.36 0.37 0.39 0.41 0.43 0.49 0.51 0.53 0.56 0.58 0.63 0.71 0.78 0.80
0.28 0.25 0.25 0.27 0.29 0.27 0.26 0.28 0.32 0.33 0.34 0.33 0.32 0.29 0.26 0.24 0.23 0.23 0.23 0.24 0.26 0.30 0.32 0.33 0.32 0.32 0.33 0.33 0.34 0.36 0.40 0.42 0.43 0.45 0.47 0.50 0.54 0.59 0.63 0.65 0.67 0.71 0.75 0.76